GFSSW_prec_cloud_057.txt.gz
Cloud_Cover
4 4 12 36 0 3 2 0 2 5 2 5 99 100 100 100 85 2 0 0 0 0 4 5 49 29 56 6 54 100 50 9 5 0 0 2 37 2 89 100 89 100 100 100 100
43 86 100 82 52 3 2 0 8 5 5 5 58 54 100 100 40 0 0 0 0 0 4 7 100 100 77 78 91 100 46 3 0 0 0 0 5 12 100 100 64 100 96 100 100
89 100 100 100 100 80 34 26 13 61 42 4 10 100 100 98 12 0 0 0 0 0 5 5 68 100 86 56 96 47 10 0 0 0 0 0 0 85 100 100 100 85 100 100 100
95 100 86 100 91 99 95 5 72 72 67 4 5 98 97 100 59 0 0 0 0 0 5 5 5 58 100 42 5 5 0 3 2 0 0 0 1 100 100 99 97 30 99 100 100
85 100 100 100 100 100 100 99 18 46 100 5 5 5 66 98 29 4 5 0 0 0 2 4 28 100 13 4 5 3 0 44 0 0 0 5 3 100 100 55 80 72 96 100 100
100 100 100 100 100 100 100 100 84 5 18 13 5 37 77 93 0 10 5 1 0 0 4 17 8 36 3 1 11 0 14 22 0 0 0 39 5 100 98 32 39 25 47 100 100
18 100 100 100 100 100 100 100 98 55 68 5 5 71 67 44 0 89 2 5 0 0 5 5 10 5 5 90 52 1 0 0 3 2 0 0 4 100 100 57 97 77 98 88 100
5 100 100 100 100 100 100 100 97 24 13 5 5 78 100 22 3 5 9 5 0 0 3 5 87 13 98 58 97 4 0 0 3 5 2 0 0 0 96 100 100 100 100 100 100
5 100 100 100 100 100 100 100 100 81 83 5 91 100 100 100 5 98 14 4 99 8 1 5 94 38 32 11 34 12 2 1 5 5 1 0 0 0 36 71 87 56 57 88 100
58 92 100 100 100 100 100 100 93 39 70 55 77 100 100 100 22 40 6 4 100 100 0 5 100 37 100 92 13 5 2 0 1 1 0 0 0 0 0 4 12 26 49 60 55
100 100 100 100 100 100 100 100 80 6 35 75 100 100 100 100 96 5 16 5 100 100 77 84 96 53 100 90 7 5 0 5 5 0 0 0 0 0 0 0 18 72 62 40 25
100 100 100 100 100 100 100 100 100 93 95 100 99 100 100 97 96 100 100 100 100 100 100 6 6 90 100 71 38 5 5 5 29 16 0 2 9 0 0 0 0 36 78 5 23
100 100 100 100 100 100 100 100 100 100 100 100 97 100 100 100 100 100 100 100 100 100 55 5 11 99 81 13 58 6 5 18 5 50 5 4 0 0 0 5 0 1 4 5 4
100 100 100 100 100 100 100 100 100 100 100 100 63 100 100 100 100 100 100 100 100 100 3 38 5 98 25 93 77 11 5 5 5 5 5 32 4 0 0 0 0 0 0 0 0
100 100 100 100 100 100 100 100 100 100 100 100 93 63 100 96 100 100 84 97 100 88 4 92 2 49 100 100 100 96 100 7 5 5 9 96 11 0 0 0 0 1 1 8 5
100 100 100 100 100 100 100 100 100 100 100 98 93 80 98 100 100 100 100 72 72 12 3 77 6 40 99 100 100 66 100 93 5 5 34 58 77 22 1 2 3 2 3 6 5
88 100 100 100 100 100 100 100 100 100 100 100 99 100 100 100 100 100 100 100 100 100 100 100 7 5 5 98 99 100 100 100 7 98 74 24 56 79 11 2 0 5 0 0 0
10 100 100 100 100 100 100 100 100 100 99 100 100 100 100 100 100 100 100 100 100 52 88 96 93 18 50 25 100 90 99 100 40 98 84 95 100 22 55 14 5 0 0 0 0
58 100 100 100 100 100 100 100 100 58 76 52 99 100 100 100 100 100 28 100 100 100 100 100 100 98 7 71 92 83 88 58 8 99 89 52 100 8 98 90 5 3 0 0 0
82 100 100 100 100 100 100 100 100 100 100 100 100 100 100 100 100 100 100 100 100 100 100 100 100 99 100 51 11 36 100 31 67 100 100 21 88 100 35 96 45 5 1 0 0
100 100 100 100 100 100 100 100 100 100 100 100 100 85 100 100 100 100 100 100 100 100 88 98 28 100 98 9 24 33 100 100 100 99 100 16 89 100 36 5 82 76 17 1 1
100 100 100 100 100 100 100 100 100 100 100 100 100 98 100 93 100 100 100 100 100 100 100 100 100 100 98 97 50 88 74 100 100 100 94 5 64 98 49 12 5 24 65 24 5
100 100 100 96 100 100 100 100 100 100 100 100 100 100 100 98 56 99 100 100 100 100 100 100 100 98 100 97 73 47 96 100 100 100 100 15 100 7 53 5 28 70 98 23 81
100 100 100 100 70 94 100 100 100 100 100 100 100 100 100 100 93 99 100 100 100 100 100 100 80 100 100 100 100 100 100 100 100 100 100 88 97 48 28 64 8 64 100 100 8
100 100 93 100 100 100 93 98 100 100 100 100 100 100 100 100 100 100 100 100 100 100 100 81 97 97 100 100 100 100 100 100 15 67 49 100 100 100 4 9 43 95 100 100 100
100 100 100 72 100 100 100 94 100 37 100 100 100 100 100 100 100 100 100 100 100 100 100 100 85 26 100 100 100 100 53 100 100 100 100 100 100 100 92 5 5 31 64 100 100
100 98 100 100 91 100 100 100 94 91 40 86 100 76 99 100 100 100 100 100 100 100 100 100 100 100 69 100 100 100 54 91 100 100 100 100 100 100 100 52 31 8 73 94 100

GFSSW_prec_cloud_060.txt.gz
Cloud_Cover
17 6 100 100 100 93 54 30 4 0 4 1 0 3 42 100 92 5 5 8 3 0 0 0 0 0 0 93 56 9 7 47 36 8 0 0 0 0 0 9 100 8 81 100 100
5 5 5 18 52 99 86 58 15 14 2 4 2 2 46 100 75 21 15 1 0 0 0 0 0 0 0 77 100 8 7 49 5 1 0 0 0 0 0 69 60 93 95 100 100
5 5 5 5 5 5 10 100 96 5 62 5 5 5 1 99 59 5 8 5 0 0 0 0 0 0 0 0 65 8 4 31 5 0 0 0 0 0 9 100 44 99 96 100 100
0 20 5 5 5 78 61 31 81 98 5 52 36 5 5 72 100 5 5 5 5 0 0 0 0 0 0 0 76 22 0 4 0 0 0 0 0 0 86 96 71 99 97 100 100
2 0 1 5 5 5 48 96 98 100 88 14 41 76 28 48 93 0 4 4 4 1 0 0 3 0 0 2 5 0 0 0 0 0 0 0 0 6 100 100 98 33 71 100 100
1 1 0 0 5 63 68 98 100 100 100 64 100 100 62 98 95 0 5 0 0 0 0 0 1 0 1 5 0 0 5 3 0 0 0 0 0 1 41 99 76 99 100 100 100
0 0 0 0 0 5 20 100 100 100 100 100 100 100 97 100 14 5 19 0 3 5 0 5 0 0 5 5 5 5 5 4 0 0 0 0 0 0 0 12 90 89 53 94 100
0 0 0 0 2 2 24 100 100 100 100 100 100 100 100 100 18 100 5 5 0 0 2 5 5 5 7 30 16 21 10 5 0 0 0 0 0 0 0 33 31 44 100 100 100
0 0 2 0 100 43 35 100 100 100 100 100 100 100 100 100 73 93 24 5 5 4 2 17 10 9 32 86 16 81 6 5 5 0 0 0 0 0 1 13 5 33 81 100 99
0 1 7 19 100 98 36 86 100 100 100 100 100 100 100 100 100 100 100 5 2 5 5 100 20 69 26 67 87 88 6 9 13 0 0 0 0 0 6 27 1 3 47 96 68
5 5 5 100 84 100 68 100 100 100 100 100 100 100 100 100 100 95 100 100 5 5 38 5 98 64 100 31 8 26 5 7 31 5 2 5 0 0 0 9 0 0 92 100 40
5 10 14 100 100 100 100 100 100 100 100 100 100 100 100 100 100 100 94 100 32 12 47 3 100 87 100 100 51 13 26 31 5 5 5 1 4 0 0 0 0 2 3 38 60
5 5 94 92 100 100 100 100 100 100 100 100 100 100 100 100 100 100 100 100 89 5 86 8 100 58 90 40 96 61 94 45 5 58 5 5 5 1 0 0 0 0 0 0 6
5 5 6 99 100 100 100 100 100 100 100 100 100 100 100 100 100 100 100 100 100 100 100 69 100 96 31 5 5 8 99 68 7 22 88 5 25 5 4 0 0 0 0 0 0
5 5 5 100 90 44 100 100 100 100 100 100 100 100 100 100 100 100 100 99 100 100 73 100 100 18 5 8 33 98 44 74 7 79 51 100 5 5 5 2 0 0 0 0 0
5 5 16 45 100 14 99 100 100 100 72 100 100 100 100 100 100 100 100 97 100 100 19 100 100 8 100 74 91 89 79 77 5 75 100 100 33 6 7 5 2 0 0 2 0
5 14 59 84 99 100 100 100 100 100 100 100 100 100 99 100 100 100 100 100 97 75 100 100 100 100 18 5 38 6 56 12 5 98 100 100 85 95 5 6 5 4 0 0 0
10 18 15 79 100 86 100 100 100 100 100 100 100 100 100 100 100 100 100 100 100 28 100 100 94 98 87 5 5 92 64 98 99 91 100 100 100 100 64 5 5 5 4 0 0
44 7 61 98 100 100 100 100 99 100 100 100 100 100 100 100 100 100 100 100 100 100 100 100 100 100 100 100 37 38 67 94 19 71 100 95 100 100 100 5 10 5 16 7 0
32 18 5 65 100 100 100 100 100 100 100 100 100 100 100 100 100 100 100 100 100 100 100 100 100 100 100 98 61 88 95 100 38 59 100 70 100 100 100 74 5 9 5 5 5
96 100 12 92 99 100 100 100 100 100 100 100 100 100 100 100 100 100 100 100 100 100 100 100 100 100 94 50 99 96 58 96 22 13 38 100 100 100 100 100 96 5 5 5 34
100 100 15 98 100 100 100 100 100 100 100 100 100 100 100 100 100 100 100 86 100 100 99 100 100 100 100 100 99 96 65 100 100 18 54 100 100 100 100 99 100 100 26 5 5
100 100 42 100 100 100 100 49 100 100 100 100 100 100 100 100 100 100 98 85 100 100 100 100 100 100 100 100 10 92 83 66 31 95 99 100 100 100 68 100 100 100 96 85 19
100 100 100 100 97 90 90 31 100 100 100 100 100 100 100 100 100 100 100 100 100 100 100 93 100 100 100 100 77 19 70 98 56 12 54 55 100 100 75 96 100 100 65 100 100
100 100 29 100 100 94 73 59 84 100 100 100 100 100 100 100 100 100 100 100 100 100 100 100 100 100 100 100 39 5 100 64 5 33 5 100 100 100 99 76 100 100 96 96 100
100 100 100 100 53 100 100 98 70 100 100 100 100 100 100 100 100 100 100 100 100 85 100 100 100 100 100 100 100 100 100 100 100 57 49 100 100 100 100 100 100 100 100 85 100
100 100 100 100 91 100 78 55 98 100 100 100 100 100 100 100 100 100 99 100 100 100 89 92 100 99 100 100 100 100 100 100 84 98 100 45 88 100 100 100 100 100 100 92 95

GFSSW_prec_cloud_063.txt.gz
Cloud_Cover
36 5 5 5 5 4 0 0 0 0 5 0 6 0 0 6 78 31 88 6 4 3 1 0 0 0 0 0 0 0 0 67 5 5 0 0 0 0 0 0 5 5 37 31 100
4 2 5 5 5 5 5 5 5 3 2 4 0 5 2 9 42 100 100 98 5 4 5 0 0 0 0 0 0 0 0 3 5 3 0 0 0 0 0 0 5 5 99 100 100
0 0 0 0 1 5 5 5 5 5 4 0 3 4 4 19 57 32 5 6 5 3 5 0 0 0 0 0 0 0 0 6 0 0 0 0 0 0 0 3 5 5 56 100 100
6 21 21 54 25 38 3 5 5 5 5 5 3 5 2 34 52 62 5 10 96 5 1 0 0 0 0 0 0 0 0 4 0 0 0 0 0 0 4 5 5 5 26 100 100
100 100 91 14 8 2 2 1 4 5 5 5 5 59 52 10 100 76 100 19 96 26 0 4 0 0 0 0 0 0 0 0 0 3 0 0 0 0 5 0 5 5 20 100 100
98 37 33 0 0 0 0 0 0 2 5 6 63 93 100 70 100 5 100 100 96 84 5 4 0 0 4 0 0 0 0 0 2 0 0 0 0 0 0 0 38 53 53 100 100
5 31 0 0 0 0 0 0 0 0 2 5 18 66 100 100 100 89 100 100 66 7 5 0 5 0 5 2 4 0 1 0 5 3 0 0 0 0 0 0 91 100 82 100 100
0 0 0 0 0 0 0 0 0 0 0 7 84 21 100 100 100 100 64 100 96 6 5 1 3 5 5 5 5 5 5 5 5 5 0 0 0 0 0 0 84 100 100 67 100
0 0 0 0 0 0 0 0 4 94 94 6 30 5 100 100 100 100 100 100 98 82 5 4 5 6 5 5 5 25 76 5 5 26 3 0 0 0 0 0 0 23 98 72 98
2 2 0 0 0 0 0 1 6 100 23 34 12 100 100 100 100 100 100 100 97 97 28 5 5 35 5 5 21 69 12 5 35 8 46 0 0 0 0 0 0 0 39 100 100
5 0 0 0 0 0 2 23 30 100 95 8 51 100 100 100 100 100 100 100 100 66 39 27 5 72 5 33 16 4 6 20 68 34 72 3 4 0 0 0 0 0 0 96 100
5 2 0 0 4 4 0 5 98 100 100 78 100 100 100 100 100 100 100 100 98 73 100 6 85 63 5 87 25 5 5 16 62 54 26 4 5 5 0 0 0 0 0 13 100
4 0 1 5 5 2 2 5 100 100 100 100 100 100 100 100 100 100 100 100 100 99 100 100 100 8 22 91 86 33 87 64 43 91 68 5 5 5 5 0 0 0 0 0 9
5 4 0 5 2 5 5 43 100 100 100 100 100 100 100 100 100 100 100 100 100 100 100 100 100 32 5 96 100 0 20 64 97 82 41 4 5 4 5 5 2 0 0 0 0
5 0 4 5 100 100 19 5 100 100 100 100 100 100 100 100 100 100 100 100 100 100 95 100 100 100 5 86 91 23 99 44 59 74 80 4 5 75 4 5 0 0 0 0 0
5 0 5 5 76 26 7 5 25 100 100 100 100 100 100 100 100 100 100 100 100 100 100 100 100 90 42 13 96 97 34 67 5 63 99 35 26 85 5 5 5 5 0 0 0
5 5 5 42 75 96 84 11 20 98 100 100 100 100 100 100 100 100 100 100 100 100 100 100 100 100 100 23 100 97 5 10 5 67 99 34 100 57 5 5 5 5 4 1 0
5 48 5 5 20 100 100 78 94 54 100 100 100 100 100 100 100 100 100 100 100 100 100 100 100 100 100 100 100 98 5 5 5 86 100 61 100 98 5 5 11 6 5 5 0
56 5 6 5 22 95 100 100 19 5 100 100 100 100 100 100 100 100 100 100 100 100 100 100 100 100 100 100 100 55 4 8 8 5 15 82 100 100 45 18 44 5 5 5 5
21 19 6 2 8 86 100 96 23 25 97 100 100 100 100 100 100 100 100 100 100 100 100 100 100 100 100 100 70 100 93 53 40 71 100 82 100 100 100 49 96 67 6 25 5
60 68 5 0 67 99 100 100 46 29 100 100 100 100 100 100 100 100 100 100 100 100 100 100 100 100 91 28 80 100 100 84 13 94 90 85 99 100 89 100 100 100 81 5 5
15 96 88 62 100 100 100 100 26 2 100 100 100 100 100 100 100 100 100 100 100 100 100 100 100 100 100 98 100 99 85 96 82 58 93 99 100 100 79 100 100 100 88 5 5
100 94 60 54 97 89 100 29 89 4 60 100 100 100 100 100 98 100 100 100 100 100 100 100 100 100 100 100 100 100 99 100 96 84 94 94 100 100 96 50 100 100 100 94 33
100 99 100 100 100 62 97 53 92 5 54 100 100 100 100 100 100 93 100 100 100 100 100 95 100 100 100 100 100 100 100 100 76 75 45 17 94 100 100 100 34 100 100 100 100
100 97 59 100 100 100 100 8 5 5 79 100 100 100 100 100 100 95 100 100 100 100 100 100 100 100 100 100 100 47 100 100 86 46 5 70 5 100 100 100 100 61 100 100 100
100 98 99 98 100 79 94 87 5 10 82 100 100 100 100 100 100 100 100 99 100 100 100 100 100 100 100 100 100 100 100 100 100 83 70 99 78 100 100 100 100 94 99 100 100
100 98 92 18 39 100 100 64 5 53 100 100 100 100 100 100 69 100 100 86 100 100 100 100 100 99 100 100 100 100 100 100 100 100 100 100 100 96 94 84 100 100 99 93 97

GFSSW_prec_cloud_066.txt.gz
Cloud_Cover
22 86 34 5 5 5 7 4 0 0 0 0 0 0 0 0 0 0 0 0 0 2 0 5 66 58 5 5 5 0 0 0 0 0 1 0 0 0 0 0 0 0 0 36 1
55 48 10 6 5 5 0 0 0 0 0 0 0 1 0 2 5 5 2 2 0 4 0 10 6 6 6 6 5 0 0 0 0 2 3 0 0 0 0 0 0 0 0 69 44
6 100 6 5 5 3 3 0 0 0 2 1 0 4 0 0 4 5 4 0 3 3 0 5 2 2 5 5 6 1 0 0 0 5 5 0 0 0 0 0 5 2 0 5 96
35 70 100 100 100 97 100 100 100 100 6 5 4 3 3 3 4 5 0 0 3 4 2 0 0 0 5 5 50 1 0 0 0 5 5 0 0 0 0 2 4 0 1 5 98
100 100 100 100 100 100 100 74 4 2 4 5 1 0 5 5 28 72 5 2 5 5 5 0 0 3 5 5 5 5 0 0 0 0 0 0 0 0 0 4 0 0 1 7 77
100 100 94 100 95 74 10 5 4 0 0 0 0 0 0 4 96 100 5 6 83 55 69 4 4 5 4 5 7 13 1 0 0 0 0 0 0 0 0 0 0 0 3 42 62
16 56 45 35 24 24 1 0 0 0 0 0 0 0 0 0 31 90 99 71 75 100 100 5 5 6 5 5 5 48 5 5 5 0 0 0 0 0 0 0 0 0 0 1 11
100 87 5 5 5 3 0 0 0 0 0 0 0 42 1 0 5 98 100 27 96 100 86 5 24 16 100 5 17 11 5 5 9 3 0 0 0 4 0 0 0 0 0 0 20
75 5 5 4 3 1 0 0 0 0 0 4 15 4 1 74 0 98 100 100 86 100 78 5 97 54 33 5 8 28 17 20 11 5 1 4 0 0 0 0 0 0 0 1 5
12 5 0 0 0 0 0 0 0 1 21 7 5 61 6 52 5 97 100 100 97 100 100 85 99 62 84 17 5 61 99 5 11 15 5 5 3 0 0 0 0 0 0 0 0
13 17 5 0 0 0 0 0 0 8 0 3 59 5 22 5 5 79 100 100 100 100 86 100 78 58 100 2 79 100 19 8 19 5 5 5 5 0 0 0 0 0 0 0 0
40 5 1 0 0 0 0 14 42 63 69 12 72 39 81 2 23 99 100 100 100 100 100 100 19 100 74 19 32 96 19 90 60 5 19 5 24 7 2 0 0 0 0 0 0
53 5 1 0 0 7 3 7 27 55 30 98 16 3 100 2 95 100 100 100 100 100 90 100 100 100 56 99 62 99 40 8 66 95 74 56 16 56 5 2 0 0 0 0 0
5 5 0 0 39 20 34 11 17 5 42 59 100 8 100 66 100 100 100 100 100 100 100 100 100 100 64 80 99 100 70 5 12 99 100 39 5 100 5 5 0 0 0 0 0
19 8 5 8 30 48 26 5 0 49 4 31 100 42 100 100 100 100 100 100 100 100 100 45 100 100 93 88 98 100 100 22 14 99 100 10 18 79 5 5 2 0 0 0 0
100 78 5 7 40 8 5 5 7 44 0 6 100 41 100 100 100 100 100 100 100 100 92 68 100 100 100 100 96 100 100 91 14 6 68 19 35 7 12 9 5 5 0 0 0
100 7 5 52 58 66 15 33 22 0 0 16 100 100 100 100 100 100 100 100 100 100 100 100 100 100 100 76 66 100 98 98 34 5 99 23 92 48 40 5 7 5 5 0 0
82 5 9 17 37 19 33 23 22 0 0 57 100 100 100 100 100 100 100 100 100 100 100 100 100 100 100 97 100 100 100 94 63 16 31 26 99 10 99 5 5 5 5 4 0
7 18 22 29 5 21 100 68 0 1 5 13 100 100 84 100 100 100 100 100 100 100 100 100 100 100 100 100 100 100 100 96 27 12 47 78 100 100 100 100 100 16 5 5 5
52 68 63 6 5 84 100 78 18 4 6 7 100 100 43 100 100 100 100 100 100 100 100 100 100 100 100 100 93 98 100 64 22 95 99 100 100 100 73 4 100 99 4 7 39
41 94 24 5 4 98 100 64 100 5 2 7 100 100 100 99 100 100 100 100 100 100 100 100 98 100 100 100 86 100 100 99 89 97 100 100 100 100 95 10 86 100 100 72 100
70 99 40 26 85 74 95 71 69 29 3 6 100 100 69 100 70 100 100 100 100 100 100 100 100 100 100 100 100 100 100 100 100 98 41 79 98 100 100 99 86 100 100 100 99
100 87 13 58 91 71 43 80 12 53 97 29 49 100 94 100 72 100 100 100 100 100 100 100 99 99 100 100 100 100 99 99 100 100 100 100 100 100 100 100 100 20 61 61 64
85 86 76 70 54 68 100 75 94 5 58 100 78 100 98 89 100 100 100 100 100 100 100 100 100 100 100 100 100 94 100 100 100 100 100 100 100 100 100 100 100 85 62 96 86
100 85 67 93 73 72 82 94 93 100 29 49 85 42 87 100 100 100 100 100 100 100 100 100 100 100 100 100 100 100 100 100 100 100 100 100 100 100 100 100 100 100 99 89 100
100 85 12 76 98 97 100 99 75 100 92 31 87 99 100 92 100 100 100 100 100 100 100 100 100 100 100 100 100 100 100 100 100 100 100 96 80 50 100 100 100 100 100 46 72
99 22 96 34 54 97 99 58 12 100 94 51 86 100 97 81 100 100 100 100 100 100 100 100 100 100 100 100 100 100 100 100 100 100 99 97 77 96 98 100 100 97 100 100 90

GFSSW_prec_cloud_069.txt.gz
Cloud_Cover
100 100 100 84 92 74 81 93 100 10 5 2 2 0 0 0 0 0 0 0 0 0 0 0 3 5 0 4 0 0 3 2 0 3 0 0 0 0 0 0 0 0 0 0 0
100 100 100 100 100 44 68 19 5 4 4 5 1 0 0 0 0 0 0 0 0 0 0 0 3 4 4 2 0 0 0 0 0 0 0 0 0 0 0 0 5 6 3 0 0
100 100 100 100 98 84 20 5 1 2 2 5 4 4 5 27 6 0 0 0 2 2 0 2 2 0 0 0 0 0 0 0 0 3 0 0 0 0 0 0 5 7 14 0 0
100 100 100 100 100 96 2 41 100 88 100 95 100 100 18 9 5 0 1 0 2 0 0 0 0 0 30 0 0 0 0 0 3 0 0 0 0 0 0 0 0 0 0 0 0
100 100 100 100 100 100 100 100 100 100 100 100 100 13 1 0 0 0 0 0 5 5 5 0 0 0 0 0 0 3 1 0 3 3 1 0 0 0 0 0 3 0 0 0 0
100 100 100 100 100 100 100 100 100 100 100 90 19 1 0 0 0 0 0 6 18 71 4 0 0 3 1 0 0 82 0 0 5 1 5 0 0 0 0 0 0 0 0 0 1
100 100 100 100 100 98 59 100 8 94 5 0 9 0 0 0 0 0 0 4 34 91 100 5 5 5 10 7 5 98 2 3 2 1 4 0 1 0 0 0 0 0 0 0 0
100 100 100 100 100 100 99 79 99 12 6 4 3 0 0 0 0 0 0 2 5 96 100 7 15 25 100 97 100 100 5 2 5 5 4 3 4 0 0 0 0 0 0 0 0
100 100 100 100 100 100 100 100 90 2 3 0 8 0 0 0 0 0 0 2 5 58 100 96 100 87 100 100 100 100 84 5 5 6 5 5 5 2 0 0 0 0 0 0 0
100 88 100 100 100 100 71 8 33 2 0 0 0 1 0 0 0 0 4 1 96 93 100 95 100 100 100 100 100 100 98 11 98 100 5 14 36 2 4 0 0 0 0 0 0
24 22 5 9 57 100 19 73 60 5 0 0 0 0 0 0 0 33 0 6 99 100 100 100 79 5 100 100 100 97 54 96 100 100 14 62 9 7 5 5 0 0 0 0 0
100 98 72 100 100 47 100 77 6 2 55 0 0 0 0 0 4 9 20 3 59 100 100 100 5 96 100 100 100 100 13 100 98 82 38 38 12 45 4 6 5 4 2 0 0
100 100 100 100 97 98 82 57 7 67 6 0 0 0 0 0 1 70 27 15 58 100 100 100 49 100 100 100 100 63 68 100 100 100 71 5 26 7 5 11 5 0 0 3 0
100 100 100 100 90 44 32 12 19 91 10 0 0 0 0 0 0 56 49 54 100 100 100 100 100 100 100 100 100 53 100 100 100 75 83 93 86 76 29 76 26 4 0 0 0
100 100 32 100 100 15 32 5 39 96 4 0 0 0 0 0 4 100 100 58 100 100 100 100 100 100 100 100 100 100 100 100 100 70 100 100 49 100 30 9 5 5 5 0 0
100 100 100 100 97 41 68 70 76 81 0 0 0 0 3 2 17 100 100 100 100 100 100 100 100 100 100 100 100 100 100 100 65 99 100 100 11 100 96 96 6 5 5 2 0
92 90 100 94 99 100 79 39 30 4 0 1 1 0 0 0 48 100 100 100 100 100 100 100 100 100 100 100 100 94 100 100 97 100 100 95 18 5 97 10 5 5 5 1 0
98 100 74 93 100 100 100 65 25 5 4 4 6 0 0 3 98 100 100 100 100 100 100 100 100 100 100 100 100 100 100 100 100 100 100 98 65 33 90 35 5 5 5 4 0
76 80 70 100 100 100 85 84 10 9 26 5 99 5 0 47 64 100 100 100 100 100 100 100 100 100 100 100 100 100 68 100 100 100 100 100 22 8 91 100 60 5 5 5 5
96 98 99 100 100 100 96 23 100 100 5 62 32 4 0 64 94 100 100 100 100 100 100 100 100 100 100 100 100 100 100 100 97 100 100 100 100 100 82 100 100 100 100 94 68
93 100 100 100 100 100 87 76 92 56 10 5 11 19 6 64 100 100 100 100 100 100 100 100 100 100 100 94 100 100 100 100 100 100 100 100 100 100 60 100 90 82 71 19 100
75 100 100 100 100 90 100 97 87 68 13 5 5 6 59 100 100 100 100 100 100 100 100 100 100 100 100 100 100 100 100 100 100 100 100 100 100 100 37 90 96 43 5 0 94
91 90 43 83 100 97 98 100 98 96 21 100 95 5 51 100 100 100 100 100 100 100 100 100 95 100 100 100 100 100 100 100 100 100 100 100 100 100 91 23 100 100 62 18 2
99 96 90 22 74 86 99 99 100 100 80 100 89 100 100 100 86 100 100 100 100 100 100 100 100 100 100 100 100 100 100 100 100 100 100 100 100 100 100 100 100 92 82 94 95
75 62 89 94 90 99 100 99 100 100 100 97 98 100 87 65 53 100 100 100 100 100 100 100 100 100 100 100 100 100 100 100 100 100 100 100 100 100 100 100 100 100 93 30 99
91 84 29 86 100 100 98 97 99 100 100 100 100 100 100 100 100 100 100 100 100 100 100 100 100 100 100 100 100 100 100 100 100 100 100 100 100 100 100 100 100 100 100 100 92
63 71 67 84 96 97 89 97 100 100 93 78 100 100 100 100 90 77 100 100 100 100 100 100 100 100 100 100 100 100 100 100 100 100 100 100 100 100 100 100 100 100 100 100 100

GFSSW_prec_cloud_072.txt.gz
Cloud_Cover
100 100 100 100 100 100 100 100 100 100 100 100 78 19 18 60 5 0 0 0 0 0 0 0 0 0 0 0 0 0 0 0 0 0 1 90 4 0 0 0 0 0 0 0 0
100 100 100 100 100 100 100 100 100 100 100 85 5 5 5 4 4 1 0 0 0 0 0 0 0 0 0 0 0 0 0 0 0 0 59 11 4 0 0 0 0 4 47 9 5
100 100 100 100 100 100 100 100 100 100 100 100 98 52 4 5 3 3 4 8 1 35 45 4 0 0 0 0 0 0 4 0 0 0 5 0 0 0 0 0 1 2 1 4 0
100 100 100 100 100 100 100 100 100 100 100 100 100 100 82 100 100 100 100 100 100 93 12 0 0 0 0 0 0 0 3 0 0 0 0 0 0 0 0 0 0 0 0 0 0
100 100 100 100 100 100 100 100 100 100 100 100 100 100 100 100 100 14 18 5 21 26 4 1 2 3 0 0 0 0 0 0 2 0 0 0 0 0 0 0 0 1 0 0 0
100 98 100 100 100 100 100 100 100 100 100 100 100 100 100 100 94 25 78 100 5 0 0 0 4 31 43 10 1 0 0 4 5 0 3 0 0 0 0 0 0 0 0 0 0
100 100 100 100 98 100 100 100 100 100 100 100 26 100 97 96 56 43 2 0 0 0 0 0 5 96 65 14 54 44 1 29 49 67 5 0 22 0 2 0 0 0 0 0 0
100 100 100 100 100 18 82 100 100 100 100 100 100 100 100 91 65 34 2 0 0 0 0 2 55 25 6 5 62 6 56 96 100 100 77 0 67 16 5 0 0 0 0 0 0
100 100 100 100 100 100 100 100 97 100 96 73 28 100 66 44 5 4 0 0 0 0 0 2 84 84 100 93 100 100 99 100 100 98 90 5 50 75 38 4 0 0 38 0 0
100 94 100 100 96 100 100 100 93 88 100 61 88 52 63 12 3 3 0 0 0 0 0 4 89 99 100 77 16 100 100 100 100 100 90 42 27 91 40 5 2 0 5 80 0
68 62 99 12 100 100 100 31 62 60 22 5 61 55 8 5 2 0 0 0 0 0 0 2 5 5 100 100 100 100 100 100 100 100 100 86 46 34 30 8 46 5 0 78 9
99 100 100 100 100 100 100 93 31 6 91 43 100 49 6 3 0 0 0 0 1 3 82 14 2 98 100 100 100 100 100 100 100 100 100 100 5 7 76 28 37 78 8 4 12
94 100 100 100 100 100 100 92 41 68 31 100 100 40 5 1 3 0 0 0 2 33 68 95 52 100 100 100 100 86 100 100 100 100 100 78 5 5 29 5 5 99 20 57 93
65 100 100 100 100 99 95 100 90 100 76 40 100 94 3 0 0 0 0 1 5 4 65 72 95 100 100 100 100 100 100 100 100 100 100 100 61 53 32 34 5 5 4 5 19
100 100 100 100 100 100 100 100 100 100 100 100 100 100 25 0 0 0 0 2 24 81 11 43 100 100 99 100 99 100 100 100 100 100 100 100 100 0 62 100 12 70 6 4 0
100 100 100 100 100 100 100 100 100 100 100 55 42 10 4 1 0 0 0 0 10 77 94 100 100 100 100 100 100 100 100 100 100 100 100 100 90 8 86 98 100 99 32 4 5
93 44 49 28 100 100 100 100 100 98 76 100 74 95 5 1 0 25 0 0 57 99 100 100 100 100 100 100 100 100 100 100 96 100 100 100 57 10 41 79 27 18 5 1 5
100 91 99 80 100 100 100 93 65 60 100 81 3 12 5 5 0 84 5 3 98 100 100 100 100 100 100 100 100 100 100 100 99 100 100 100 85 100 49 85 93 13 5 5 5
95 18 14 38 76 100 100 100 11 100 98 38 5 87 5 10 0 2 23 95 100 99 100 100 100 100 100 100 100 100 100 100 100 100 100 100 94 86 7 7 65 99 5 10 16
99 80 45 88 93 100 100 88 100 100 83 63 96 5 5 100 59 95 84 38 100 100 100 100 100 100 100 100 100 100 100 100 100 100 100 100 100 100 66 44 24 90 30 90 75
90 98 2 69 26 97 100 88 95 100 93 57 95 100 46 32 19 87 36 100 100 100 100 100 100 100 100 100 100 100 100 100 100 100 100 100 100 100 100 100 94 59 100 100 100
100 97 4 78 98 100 100 98 100 100 62 100 100 100 99 100 93 24 99 14 100 100 100 100 100 96 100 100 100 100 100 100 100 100 100 100 100 100 100 100 100 99 92 100 100
100 43 90 100 92 78 100 100 100 100 100 100 100 78 74 56 34 36 28 73 100 100 100 99 100 100 100 100 100 100 100 100 100 100 100 100 100 100 100 100 100 89 92 85 13
98 57 8 94 34 96 76 100 100 100 100 100 91 78 88 46 44 3 93 25 100 100 100 100 100 100 100 100 100 100 100 100 100 100 100 100 100 100 100 100 100 99 60 94 87
100 37 99 58 72 82 100 100 100 100 100 100 76 22 99 69 100 80 84 100 100 97 100 100 100 100 100 100 100 100 100 100 100 100 100 100 100 100 100 100 100 100 76 70 98
100 75 100 100 100 97 32 64 100 100 98 100 83 64 46 100 100 100 84 73 100 100 75 100 100 100 100 100 100 100 100 100 100 100 100 100 100 100 100 100 100 100 100 88 44
92 18 98 30 61 100 97 43 31 69 88 58 100 86 76 98 11 54 100 21 100 100 96 100 100 100 100 100 100 100 100 100 100 100 100 100 100 100 100 100 100 100 100 100 100

GFSSW_prec_cloud_075.txt.gz
Cloud_Cover
100 100 100 100 100 100 100 100 100 100 100 100 97 97 100 100 100 86 86 56 5 1 2 3 0 0 0 0 0 0 0 0 0 0 0 0 1 8 5 1 0 0 0 0 0
100 100 100 100 100 100 100 100 100 100 100 100 100 100 100 100 100 100 14 81 9 4 3 4 3 2 5 56 24 0 0 0 0 0 0 0 4 7 4 0 0 0 0 0 0
100 100 100 100 100 100 100 100 100 100 100 100 100 100 100 100 100 100 100 100 100 43 5 6 100 6 9 5 4 0 0 0 0 0 0 0 0 2 5 0 0 0 0 0 0
100 100 100 100 100 100 100 100 100 100 100 100 100 100 100 100 100 100 100 100 64 78 54 30 4 3 0 1 4 0 0 0 0 0 0 0 0 0 0 0 0 0 0 0 0
100 100 100 100 100 100 100 100 100 100 100 100 94 100 100 100 100 100 100 100 100 90 100 100 100 5 28 20 25 5 4 0 0 0 0 0 0 0 0 0 0 0 0 0 0
100 100 100 100 100 100 100 100 100 100 100 100 100 100 100 100 100 100 100 100 100 100 100 100 92 12 1 0 0 0 0 0 0 2 2 2 1 4 4 0 2 0 0 0 0
100 99 100 100 96 100 100 100 100 100 100 100 82 94 100 99 100 100 100 84 100 82 86 20 2 0 0 0 0 2 5 4 0 5 4 5 2 5 60 5 3 0 0 0 0
100 100 100 100 100 99 100 100 100 100 100 100 96 100 100 100 100 100 100 100 100 92 53 2 0 0 0 0 0 0 0 5 47 31 100 100 1 100 7 5 4 0 0 0 0
100 100 100 100 100 100 100 100 60 85 100 100 94 69 87 79 92 98 67 13 14 30 8 1 0 0 0 0 26 42 1 4 72 100 100 72 60 100 7 4 1 0 0 0 0
100 100 100 100 100 100 100 100 100 90 100 100 94 100 70 41 85 97 28 80 95 20 1 0 0 0 0 4 0 5 45 56 85 100 100 67 51 100 81 44 3 0 0 0 0
100 100 100 100 100 100 100 100 95 87 91 25 96 100 100 27 23 90 100 64 88 7 5 0 0 0 0 1 82 98 99 45 100 100 38 93 100 100 95 95 5 0 5 1 0
95 100 100 100 100 100 100 100 97 78 63 70 100 90 100 13 11 34 24 60 100 94 5 8 2 0 0 1 95 12 23 27 100 100 100 63 100 99 72 100 5 5 46 4 0
35 21 62 100 100 100 94 66 99 100 6 100 84 100 100 100 83 89 100 100 99 85 15 6 12 80 4 5 53 64 100 100 96 100 100 100 100 50 100 98 19 5 5 5 5
90 16 100 98 100 100 100 84 100 99 65 40 100 100 100 52 60 95 93 65 89 93 5 28 4 1 5 5 29 88 69 100 100 100 91 66 100 12 82 93 5 11 5 5 5
100 99 18 100 100 100 100 100 100 97 82 66 8 100 100 100 70 100 100 100 100 100 4 0 0 5 34 6 100 90 100 85 91 64 7 42 86 97 93 13 11 21 52 9 5
5 63 100 100 100 100 100 100 100 100 91 99 40 96 100 100 100 100 100 100 88 2 5 4 0 3 1 98 93 100 100 98 100 100 12 100 100 100 78 4 22 6 99 66 5
5 85 77 5 4 76 100 100 100 99 99 93 83 15 100 100 100 100 91 78 4 2 2 3 0 4 8 99 91 100 100 100 100 100 93 100 100 100 10 5 28 82 82 14 11
5 99 8 5 1 57 100 91 100 100 100 100 100 100 100 100 100 88 0 76 2 0 4 5 4 5 76 95 100 100 100 99 100 100 100 100 41 100 14 5 56 98 46 5 5
12 77 9 5 0 31 100 100 0 5 100 100 100 90 100 100 100 76 1 1 79 37 11 8 5 8 92 100 100 100 100 100 100 100 100 100 96 93 41 34 5 99 5 22 35
23 99 34 0 1 64 100 88 2 56 92 95 88 16 62 62 74 68 43 6 100 28 87 32 9 65 100 100 100 100 100 100 100 100 100 100 100 77 73 25 5 35 23 34 85
95 100 2 3 39 74 91 44 11 95 100 100 100 95 100 100 86 94 100 44 5 7 100 82 65 100 100 100 100 100 100 100 100 100 100 100 100 100 100 100 95 100 100 59 30
100 97 4 100 87 85 36 36 5 100 100 67 75 92 49 100 100 98 88 5 5 5 28 100 100 93 100 100 100 100 100 100 100 100 100 100 100 100 100 100 100 60 100 44 97
100 72 2 85 100 73 60 20 32 100 100 100 100 100 100 100 99 93 92 26 5 5 14 17 98 100 100 100 100 100 100 100 100 100 100 100 100 100 100 100 100 100 81 72 5
100 72 67 20 100 97 44 17 8 100 100 100 100 100 100 100 100 100 100 97 75 5 5 42 100 100 100 100 100 100 100 100 100 100 100 100 100 100 100 100 100 100 100 94 96
100 100 100 79 100 100 100 78 78 100 100 100 100 100 100 100 100 98 100 98 77 29 30 100 100 100 100 100 100 100 100 100 100 100 100 100 100 100 100 100 98 96 100 100 100
100 100 100 92 100 100 88 100 100 100 100 100 100 100 100 100 89 50 76 42 85 68 98 100 100 100 100 100 100 100 100 100 100 100 100 100 100 100 100 100 100 100 100 100 89
100 100 100 100 100 100 83 82 97 100 100 100 100 100 100 99 88 83 50 5 0 4 90 100 100 100 100 100 100 100 100 100 100 100 100 100 100 100 100 100 100 100 100 100 100

GFSSW_prec_cloud_078.txt.gz
Cloud_Cover
1 33 98 100 100 100 100 100 100 100 100 100 100 100 94 50 76 89 98 74 86 100 100 98 20 5 5 4 1 0 2 4 1 9 1 5 0 0 0 0 0 0 0 0 0
5 3 57 100 100 100 100 100 100 100 100 100 99 100 100 91 99 100 100 100 100 100 100 58 31 5 12 20 3 0 0 0 1 0 1 2 0 0 0 0 0 0 0 0 0
100 5 20 87 94 100 100 100 100 53 100 100 100 100 100 100 100 99 100 100 100 100 100 83 100 100 100 99 14 0 0 0 0 0 0 0 0 0 4 1 0 0 0 0 0
100 100 84 17 98 100 100 100 100 100 100 100 100 100 100 100 100 100 100 100 100 100 100 100 100 100 99 57 26 0 0 5 2 0 0 2 3 0 4 1 0 0 0 0 0
100 100 100 33 99 83 100 100 100 100 100 100 100 100 100 100 100 100 100 92 91 86 100 96 91 88 65 57 80 4 5 0 0 0 0 1 0 0 0 0 0 0 0 0 0
100 100 100 100 100 100 100 100 100 100 100 100 100 100 100 100 100 100 100 100 100 100 100 100 80 66 70 6 20 4 1 0 0 0 0 0 0 0 0 0 0 0 0 0 0
100 100 100 100 100 100 100 98 98 70 100 100 100 100 100 100 100 100 100 100 100 100 100 100 100 66 10 6 4 0 0 0 0 0 0 0 0 0 0 90 58 0 0 0 0
100 100 100 100 100 100 100 100 100 100 100 100 100 100 100 92 100 100 100 81 94 38 66 12 75 96 99 59 5 1 0 0 0 0 0 5 0 1 76 100 32 0 1 4 0
100 100 100 100 100 100 100 100 100 100 99 100 100 100 100 100 100 100 100 100 100 100 99 91 20 14 5 3 0 0 0 0 0 0 0 100 0 99 100 99 39 4 3 8 4
100 100 100 100 100 100 100 100 100 100 96 100 100 85 100 100 94 100 100 100 100 100 76 37 22 21 5 5 0 0 0 0 0 2 90 97 1 100 98 0 2 5 5 5 0
100 100 100 100 100 100 100 100 100 100 100 100 100 100 100 100 100 100 100 100 100 100 100 5 22 76 5 0 0 0 0 0 0 2 57 20 0 100 36 8 1 5 5 3 0
100 100 100 100 100 99 100 100 100 100 100 100 100 100 100 92 100 100 70 100 100 100 100 90 8 70 79 19 5 5 0 0 0 5 68 17 1 95 48 83 89 55 5 5 4
26 93 19 6 100 100 100 100 100 100 40 100 100 100 100 100 100 100 99 100 100 98 100 58 99 88 100 100 13 0 0 5 0 50 69 2 0 76 40 37 96 53 5 5 3
100 100 96 64 98 39 54 100 100 94 49 100 100 76 100 100 87 98 98 99 100 90 79 66 99 100 92 58 4 0 0 2 5 100 37 70 5 0 72 92 95 26 7 5 5
13 99 100 100 50 85 6 24 100 89 5 30 8 100 100 92 100 100 96 57 99 94 5 4 6 78 23 45 5 3 5 6 87 72 46 22 4 95 54 99 100 99 5 35 5
4 6 5 4 30 67 99 86 42 39 47 5 23 40 100 100 100 100 100 100 5 88 34 53 67 94 87 8 2 14 5 13 99 96 21 33 8 91 95 100 100 99 5 100 5
3 7 5 28 1 0 2 27 100 99 84 100 100 100 100 100 100 100 100 100 32 8 22 11 22 86 5 4 5 78 84 91 100 85 35 86 64 100 100 100 100 100 24 34 16
5 24 5 5 5 3 32 64 86 4 100 100 100 100 100 100 100 100 100 100 85 5 100 100 100 7 0 5 59 81 86 100 76 70 52 21 66 100 100 98 100 100 71 89 8
23 6 5 0 6 5 93 100 0 0 2 60 100 100 100 100 100 100 100 99 100 100 100 100 97 10 2 4 54 100 100 100 100 100 100 10 100 100 100 85 100 100 100 62 92
100 95 37 0 57 16 100 42 1 0 2 100 100 100 100 100 100 96 32 83 99 100 100 88 29 4 4 13 100 99 100 100 100 100 100 8 100 100 100 100 100 100 66 54 37
9 63 0 5 31 93 100 30 0 0 96 100 100 100 100 100 100 66 100 99 100 100 100 97 50 8 16 70 86 100 100 100 100 99 100 88 100 100 100 100 100 100 100 100 100
50 92 18 64 90 88 100 8 2 1 100 100 100 100 100 94 100 100 6 100 100 88 78 5 79 95 3 3 17 100 100 100 100 90 100 100 100 100 100 95 86 100 100 100 100
100 86 5 94 100 77 60 50 44 1 100 100 100 100 100 100 100 100 97 42 5 5 5 4 72 62 0 3 98 100 100 100 100 94 100 100 98 100 100 100 42 100 96 26 92
100 85 8 47 16 26 100 27 20 1 100 63 100 100 100 100 100 100 54 94 27 5 5 5 5 5 5 9 100 100 100 100 100 100 100 100 100 100 100 100 100 100 100 95 73
100 56 61 99 96 100 100 84 84 54 83 68 100 100 100 100 100 100 100 97 5 15 5 90 52 5 5 86 100 100 100 100 100 100 100 100 100 100 100 100 100 100 100 100 100
100 100 99 100 100 100 100 100 100 100 68 100 100 100 100 100 94 84 100 51 100 87 84 46 38 5 5 100 100 100 100 100 100 98 100 86 100 100 100 100 100 100 100 100 100
98 93 100 100 100 100 100 100 100 100 100 100 100 100 100 100 100 100 100 100 99 99 92 100 100 79 72 100 100 100 100 100 100 82 100 100 100 100 100 100 100 100 72 80 100

GFSSW_prec_cloud_081.txt.gz
Cloud_Cover
5 51 100 47 26 2 10 93 26 99 100 100 100 99 100 100 100 100 100 100 100 100 21 5 5 5 75 94 21 5 2 2 4 5 48 38 0 0 0 0 0 0 0 0 0
0 16 100 100 100 71 1 5 100 79 52 100 100 100 100 100 100 100 100 100 100 100 93 88 56 83 82 80 62 20 3 30 84 45 47 77 0 0 0 0 0 0 0 0 0
5 40 98 100 100 100 13 4 54 99 100 100 98 99 100 100 100 100 88 100 97 100 80 44 81 43 68 15 65 29 84 100 100 45 5 7 4 5 0 0 0 0 0 0 0
5 35 10 100 99 100 100 9 16 99 50 100 100 100 92 99 93 98 84 100 100 100 99 100 96 100 100 100 100 100 100 70 5 5 5 90 5 0 0 0 4 1 0 0 0
75 98 98 60 100 100 100 100 94 100 91 100 100 100 100 100 100 100 100 100 100 100 100 100 100 74 45 88 88 6 97 5 2 2 4 2 0 0 0 0 4 0 0 0 0
100 95 96 99 94 100 100 100 100 100 100 100 100 100 100 100 100 100 100 100 100 100 99 90 97 93 100 100 99 34 4 5 1 3 0 0 0 0 1 0 0 0 0 0 0
20 76 100 100 100 100 100 100 100 100 93 100 100 100 100 100 100 100 100 100 100 100 96 83 100 96 100 100 93 98 78 99 34 20 0 0 0 0 0 2 0 0 0 0 4
6 100 100 100 100 100 100 100 100 100 100 100 100 100 100 100 100 100 100 100 100 100 100 100 99 98 100 100 100 93 18 3 39 2 1 0 0 0 0 0 0 0 0 2 12
100 100 100 100 100 100 100 100 100 100 100 100 100 100 100 100 100 100 100 100 100 100 100 100 100 92 96 79 8 5 1 0 4 2 0 0 0 0 1 0 0 0 3 8 0
100 100 100 100 100 100 100 100 100 100 100 100 100 100 100 100 100 100 100 100 100 100 100 100 100 100 90 74 16 5 0 0 0 2 0 0 0 0 0 4 0 2 4 27 52
5 100 8 33 100 100 100 100 98 93 100 100 100 100 100 100 100 100 100 100 100 100 100 81 64 100 100 96 86 20 0 0 5 3 0 0 0 0 0 65 0 5 0 16 100
5 26 83 91 18 3 94 100 100 89 100 100 100 92 100 100 100 100 100 100 100 100 100 100 100 100 76 55 12 6 1 1 0 3 0 0 0 0 0 43 0 0 6 100 69
10 68 100 88 28 9 3 28 100 100 69 100 96 100 100 100 100 100 100 100 100 100 100 13 62 96 100 88 14 10 5 5 5 0 0 0 0 0 0 5 0 22 99 97 100
5 4 1 3 1 4 5 5 98 100 98 100 100 100 100 100 100 100 100 100 100 100 100 100 91 94 89 16 10 7 55 5 3 0 1 0 1 0 2 0 1 57 72 99 77
5 0 0 5 8 0 0 2 6 39 2 2 30 100 100 100 100 100 100 100 100 100 100 100 100 65 35 98 69 5 1 4 5 5 2 0 6 0 4 0 68 89 100 100 100
5 2 5 5 0 3 0 0 34 56 33 1 33 49 100 100 100 100 100 100 100 100 100 100 100 100 83 47 5 5 3 54 68 27 15 1 22 85 0 28 100 100 100 100 100
6 39 5 4 0 4 0 1 24 97 0 44 6 82 87 100 100 100 88 96 100 100 100 100 96 100 99 20 5 23 75 77 80 97 35 5 5 100 15 100 100 100 100 98 100
16 13 5 0 0 5 1 28 85 0 0 0 87 100 67 99 100 100 30 5 6 29 23 44 62 89 100 30 6 96 82 62 15 9 5 0 19 100 100 100 100 100 100 100 100
1 3 0 0 0 5 43 100 0 0 0 0 100 94 99 91 100 100 84 100 99 7 40 54 54 98 100 13 26 100 100 11 98 98 100 10 87 100 100 81 95 91 100 100 100
4 5 0 0 1 8 90 79 86 2 3 1 100 83 99 91 100 100 98 58 100 100 100 100 100 100 100 85 63 97 100 100 97 100 94 52 100 100 100 5 7 100 100 91 94
5 5 5 4 5 99 98 97 40 5 4 4 72 100 100 100 100 94 100 98 100 100 100 100 100 100 100 100 100 60 100 100 100 90 100 98 100 100 8 45 97 100 100 54 100
11 70 5 5 61 77 86 98 29 1 0 2 12 100 100 100 100 100 27 100 100 100 100 100 100 100 100 97 57 6 53 93 100 100 100 83 100 100 62 88 100 100 100 99 100
82 77 15 5 93 100 95 64 87 5 0 0 7 100 100 100 100 100 97 74 100 100 100 100 100 100 100 88 33 77 99 99 100 100 96 100 100 100 99 46 89 100 100 100 8
97 93 5 31 7 8 94 23 94 5 26 5 27 100 100 100 100 100 100 100 97 6 97 98 100 83 89 10 50 9 100 100 100 100 100 100 100 100 100 92 100 100 100 100 59
94 48 9 46 85 98 100 31 19 5 39 5 43 100 100 100 100 100 100 39 83 100 100 32 7 5 5 4 4 5 59 100 58 65 97 100 100 100 100 100 100 100 100 100 100
77 81 61 94 100 100 100 100 100 100 96 6 46 100 100 100 100 100 100 58 97 98 100 95 5 5 5 3 4 2 3 100 99 46 100 100 100 100 100 100 100 100 100 100 100
100 99 100 83 100 100 100 100 100 100 72 53 67 100 100 100 5 43 6 16 16 100 100 100 67 25 6 3 2 5 22 60 100 100 100 100 100 100 100 100 100 100 100 100 100

GFSSW_prec_cloud_084.txt.gz
Cloud_Cover
0 0 0 0 0 0 0 9 81 7 97 4 5 100 100 100 84 100 100 100 100 100 100 100 100 100 100 100 100 100 47 100 100 100 100 26 5 6 4 0 0 0 0 0 0
5 5 5 8 3 3 0 0 0 1 58 96 2 42 100 100 100 100 100 100 100 100 100 100 100 100 100 100 100 82 74 100 100 100 85 5 9 44 4 1 0 0 0 0 0
94 38 6 10 28 57 5 4 2 3 3 60 81 7 56 100 100 100 100 100 100 100 100 100 100 100 100 69 39 62 91 100 100 91 11 51 94 100 93 2 0 0 0 0 0
100 100 86 95 98 63 99 6 5 5 11 7 100 100 13 100 100 100 100 100 100 100 100 100 100 100 100 100 100 49 72 57 100 87 100 100 91 100 32 0 0 0 0 0 0
91 100 100 98 71 80 16 9 35 100 6 100 100 100 97 91 100 100 100 99 100 100 100 100 100 94 100 100 100 100 100 100 98 100 78 5 6 5 0 5 1 0 0 1 1
96 92 57 74 30 72 41 16 79 33 92 100 100 100 100 100 100 35 100 100 100 94 99 100 100 100 100 100 100 98 100 98 77 100 67 8 1 0 4 1 0 0 0 2 3
99 83 78 55 11 12 5 93 86 13 93 95 100 100 100 100 100 100 100 100 100 100 100 97 100 100 99 100 83 95 40 40 87 45 44 25 0 2 0 0 0 0 5 0 0
5 5 6 7 5 5 92 100 99 66 100 100 100 100 100 100 100 100 100 100 100 100 100 64 92 74 100 100 100 100 100 38 98 100 100 52 24 4 0 0 3 5 4 1 0
0 3 5 0 0 3 56 100 100 100 100 100 100 100 100 100 100 100 100 100 100 100 100 100 100 100 99 86 100 100 100 100 100 100 89 94 2 0 2 0 8 39 3 0 0
5 5 0 0 0 0 0 2 90 100 100 100 100 100 100 100 100 100 100 100 100 100 100 100 100 100 100 100 100 100 100 100 100 100 68 1 0 0 0 52 97 3 0 0 0
88 4 0 0 0 0 0 0 39 4 20 100 100 100 100 100 100 100 100 100 100 100 100 100 100 100 100 100 100 100 100 100 100 100 57 0 0 0 0 5 5 0 0 0 0
93 2 0 0 4 10 7 3 23 72 96 25 98 77 100 100 100 100 100 100 100 100 100 100 98 100 100 100 100 93 89 100 94 78 3 3 0 0 0 4 2 0 0 0 0
5 1 0 5 92 75 8 1 9 32 95 10 97 84 100 100 100 100 100 100 100 100 100 100 100 96 100 97 99 100 27 5 5 19 3 0 0 0 5 3 0 0 0 0 5
5 0 1 40 24 54 18 0 5 8 100 2 4 98 34 100 100 100 100 100 100 100 100 100 100 100 100 81 100 100 68 6 5 5 4 3 4 3 16 1 0 0 0 1 67
2 5 5 5 5 0 0 0 3 5 42 0 0 5 99 22 98 100 100 100 100 100 100 95 96 100 100 100 95 100 96 16 5 5 58 5 23 0 99 0 0 0 0 51 100
0 5 14 2 0 0 0 0 2 49 25 0 0 6 98 94 72 100 100 100 100 100 100 78 100 100 100 100 100 100 100 100 18 26 57 8 1 0 53 0 0 0 1 100 100
5 5 0 2 0 0 0 1 20 89 0 0 0 0 90 88 74 100 100 100 100 100 100 100 100 100 100 100 100 100 100 92 35 93 32 38 2 0 6 0 0 0 92 100 100
0 0 0 0 0 0 4 15 72 0 0 0 0 59 99 97 26 100 100 97 71 99 100 100 100 100 100 100 93 100 100 99 33 44 19 5 2 0 0 0 0 0 38 99 100
0 0 0 0 0 0 5 88 1 26 98 6 0 6 100 84 100 42 96 94 99 100 100 100 100 100 100 100 100 100 100 10 61 88 92 5 0 0 4 0 0 17 100 100 80
2 8 0 1 1 5 58 62 5 5 58 48 16 24 93 100 100 78 23 84 96 100 100 98 96 100 100 99 82 49 78 100 100 75 39 5 4 48 4 4 4 100 100 100 100
5 16 0 5 5 96 95 5 3 0 12 28 11 29 71 57 100 100 82 70 100 100 100 100 96 89 100 95 25 46 65 100 93 99 94 51 4 33 98 7 75 97 100 100 100
5 61 7 7 55 88 91 9 9 4 3 5 5 0 32 100 100 100 100 100 100 100 100 100 100 100 100 89 9 52 87 79 99 100 96 64 18 98 99 89 100 100 100 100 100
68 26 4 5 78 87 42 90 81 39 69 42 8 66 96 100 92 100 100 100 100 100 100 100 100 100 100 100 44 98 100 100 100 100 100 100 14 99 100 100 100 100 100 100 100
34 71 5 99 30 36 84 5 96 96 12 6 5 2 98 100 100 100 100 100 100 100 100 100 100 100 100 100 100 100 57 88 77 100 71 37 26 100 100 100 100 100 100 100 100
67 45 7 86 12 19 64 64 37 94 18 35 11 2 100 100 100 100 100 100 100 100 100 100 100 100 100 100 100 100 100 51 5 49 86 3 97 100 100 100 99 100 100 100 100
61 97 99 69 5 22 87 100 100 100 100 77 80 3 100 100 100 100 100 100 100 100 100 100 100 6 70 82 5 60 15 5 0 64 5 5 100 100 100 100 100 100 100 100 100
93 94 99 11 5 39 100 100 100 100 100 70 85 89 100 100 100 100 100 100 100 100 100 82 100 42 40 4 5 5 3 5 32 5 100 92 100 100 100 100 100 100 100 100 100

GFSSW_prec_cloud_087.txt.gz
Cloud_Cover
13 62 57 100 23 1 2 5 5 5 5 4 5 0 0 0 5 3 92 100 100 100 58 100 100 100 100 100 100 100 100 100 100 100 100 100 100 100 8 5 5 5 4 0 0
84 100 100 100 100 100 99 86 27 84 93 32 5 5 0 0 0 3 2 91 100 100 100 100 100 100 100 100 93 100 100 100 100 100 100 88 100 69 5 24 16 5 5 3 5
8 80 100 100 100 100 100 100 100 100 52 96 72 54 6 3 1 10 3 4 100 100 100 100 100 100 100 100 100 100 100 100 100 100 100 100 100 62 100 88 5 52 7 0 5
5 11 96 64 89 98 100 100 100 100 100 83 9 5 5 83 84 8 86 6 36 100 100 100 100 100 100 100 100 100 100 100 100 100 100 94 80 100 46 39 100 4 0 0 0
58 97 90 100 100 100 100 35 60 93 100 92 100 100 7 44 100 45 42 100 48 91 100 100 100 100 100 100 100 100 100 100 100 100 100 100 98 100 68 100 77 3 0 0 0
94 87 94 76 100 100 64 49 6 75 39 84 41 100 54 64 100 100 76 97 100 92 89 100 100 100 100 99 100 100 100 100 100 100 100 67 85 16 100 57 3 4 0 0 0
15 26 6 6 10 19 5 0 3 11 24 5 40 100 81 64 96 100 100 100 100 100 100 100 100 100 100 100 100 100 100 100 100 100 100 53 100 40 44 4 4 0 0 0 0
21 69 5 5 5 1 3 0 0 0 0 0 45 97 30 96 100 70 100 100 100 100 100 100 100 100 100 100 100 100 100 100 100 100 100 38 66 5 2 2 0 0 1 9 5
5 9 5 4 2 0 0 0 0 0 0 0 18 47 18 8 100 100 100 100 100 100 100 100 100 100 100 100 100 100 100 100 100 100 92 71 49 6 100 20 5 19 75 100 2
5 11 87 4 0 0 0 0 0 0 0 2 20 49 0 5 100 100 100 100 100 100 100 100 100 100 100 100 100 100 100 100 100 100 100 91 48 5 30 100 86 100 100 7 5
5 5 94 100 1 0 0 0 0 0 0 1 3 0 4 5 100 100 100 100 100 100 100 100 100 100 100 100 100 100 100 100 100 100 100 98 88 46 91 100 100 100 15 0 5
41 12 94 5 0 0 0 0 5 44 88 94 60 5 0 4 6 100 100 100 100 100 100 100 100 100 100 100 100 100 100 100 100 100 100 100 100 100 100 90 100 100 50 3 4
100 100 6 3 0 3 0 0 4 5 100 4 0 0 0 0 1 95 100 100 100 100 100 100 100 100 100 100 100 100 100 100 100 100 100 100 95 90 83 24 66 33 1 2 5
100 100 100 4 4 2 0 0 0 5 20 0 0 0 0 5 0 0 100 31 100 100 100 100 100 100 100 100 100 100 100 100 100 61 41 3 1 9 13 100 9 0 0 5 0
100 5 5 1 0 5 0 0 0 3 0 0 0 0 0 49 38 39 3 6 95 100 100 100 100 100 100 100 97 93 100 100 100 52 18 6 5 58 6 8 5 0 1 0 0
7 9 5 4 0 0 0 0 1 1 0 0 0 0 0 2 95 49 4 5 10 100 100 100 100 100 100 100 100 100 100 100 95 27 58 5 4 5 5 5 10 0 0 0 0
9 5 5 0 0 1 0 0 2 0 0 0 0 0 0 5 94 100 94 3 5 92 100 100 100 100 100 100 100 100 99 94 75 93 37 10 20 13 11 7 5 0 0 0 0
5 0 0 0 0 0 0 3 0 0 0 0 0 0 0 8 6 100 96 33 29 99 100 100 100 100 100 100 100 92 100 100 80 52 21 90 99 41 8 9 2 0 0 0 0
7 3 0 0 0 0 4 5 0 24 95 11 2 0 5 36 81 100 100 99 68 100 100 100 100 100 100 100 100 100 100 78 49 21 49 60 5 5 5 48 16 3 0 0 25
5 0 1 5 0 5 34 4 0 5 93 46 5 5 97 29 0 100 100 100 73 92 100 100 100 100 100 100 100 100 100 97 88 57 82 29 66 5 5 5 5 2 0 9 100
4 5 5 5 40 94 90 5 5 3 3 8 5 20 4 1 8 100 99 100 100 100 100 100 100 100 100 100 100 100 100 75 100 100 100 56 5 5 83 94 2 2 6 96 100
2 5 63 4 13 88 80 72 7 5 91 40 5 5 2 4 97 100 100 100 100 100 99 100 100 100 100 100 100 100 100 58 77 96 100 97 92 16 13 77 5 5 78 100 100
31 5 4 5 5 36 4 5 5 5 68 5 5 5 8 92 96 100 100 100 100 100 99 100 100 100 100 100 100 100 100 100 99 90 56 98 96 100 17 84 5 83 100 100 100
11 5 4 84 42 92 76 12 31 5 20 54 5 3 3 7 94 100 100 100 100 100 100 100 100 100 100 100 100 100 62 5 5 62 80 79 100 100 5 6 58 100 100 100 100
53 39 9 18 5 35 45 33 22 95 21 99 45 5 5 91 100 100 100 100 100 100 100 100 100 100 100 100 100 100 67 5 5 37 17 100 98 9 1 5 95 100 100 100 100
86 64 70 96 20 84 29 70 94 100 100 100 100 6 92 84 100 100 100 100 100 100 100 100 100 100 100 42 17 100 38 96 5 5 19 28 80 5 5 24 100 100 100 100 100
80 92 97 6 5 17 12 61 100 100 100 100 100 100 98 100 100 100 100 100 100 100 100 100 100 100 100 45 54 94 14 36 99 37 23 86 20 6 26 100 100 100 100 100 100

GFSSW_prec_cloud_090.txt.gz
Cloud_Cover
5 100 22 16 5 5 5 5 65 100 100 100 100 15 5 5 5 19 2 2 0 0 0 5 99 10 18 32 88 55 14 64 100 100 100 100 100 100 100 100 100 100 42 6 48
71 69 10 14 5 5 5 5 100 100 100 100 100 100 45 7 58 40 13 6 0 0 0 12 6 100 90 87 100 55 16 100 100 100 100 100 78 23 79 100 100 100 78 9 5
31 76 92 86 7 34 79 86 84 68 84 62 100 98 100 100 100 100 100 5 5 1 1 5 70 54 100 100 89 100 96 100 100 100 100 100 89 84 79 100 100 100 58 56 100
59 90 100 100 96 89 99 100 100 100 100 97 51 87 56 63 76 42 12 5 6 86 5 54 12 60 100 100 100 67 100 100 100 100 100 100 100 100 100 100 100 100 100 100 44
100 100 98 100 100 80 24 14 48 80 99 92 98 100 63 82 77 6 29 5 2 5 100 99 98 58 42 95 100 100 100 100 100 100 100 100 100 100 100 100 100 100 100 100 43
54 80 96 83 100 79 62 12 5 6 93 98 87 98 58 39 33 9 1 3 3 4 80 99 100 100 27 19 100 94 100 100 100 100 100 100 100 100 100 100 100 100 100 56 75
7 5 26 6 5 5 5 2 0 0 6 5 12 5 4 5 3 0 0 7 10 5 72 100 100 100 100 39 90 100 100 100 100 100 100 100 100 100 100 100 14 88 57 5 6
100 5 5 53 5 5 2 2 4 2 0 0 29 0 0 0 0 0 0 0 34 40 96 100 99 100 100 100 100 100 100 100 100 100 100 100 89 100 100 100 81 77 49 5 5
100 66 27 7 5 5 5 5 5 0 3 0 10 0 0 0 0 0 0 0 0 69 75 100 100 100 100 100 100 100 100 100 100 100 100 100 100 100 100 98 78 68 60 34 45
100 5 30 28 1 2 5 2 5 0 0 0 1 0 0 0 0 0 3 3 0 44 100 99 100 98 100 100 100 100 100 100 100 100 100 100 100 100 100 100 100 100 100 100 66
74 100 100 5 5 26 94 5 0 4 5 0 0 0 0 0 0 0 5 5 0 3 100 100 100 97 100 100 100 100 100 100 100 100 100 100 100 100 100 100 100 100 99 100 100
98 34 31 99 60 90 10 5 7 5 36 14 0 0 0 0 0 0 4 5 5 2 100 100 100 100 100 100 100 100 100 100 100 100 100 100 100 100 100 100 100 100 100 100 96
100 100 100 69 12 6 0 5 1 6 60 0 0 0 0 0 0 0 0 0 1 0 87 100 100 100 100 100 100 100 100 100 100 100 100 100 100 100 100 100 100 100 100 100 100
100 100 100 53 43 8 5 6 5 2 3 0 0 1 0 0 0 0 0 1 0 0 8 10 100 100 100 100 100 100 100 100 100 100 100 100 100 100 100 100 100 100 100 100 96
98 100 100 17 9 43 9 5 0 74 0 0 0 0 0 0 0 0 3 0 5 0 27 7 100 100 100 100 100 100 100 100 100 100 100 89 100 100 100 100 100 61 5 5 4
100 92 95 76 75 61 19 2 1 2 0 0 0 0 0 0 0 0 0 45 5 4 5 42 94 100 100 100 100 100 100 100 100 100 50 100 96 100 100 100 33 6 12 5 1
100 100 100 100 100 69 5 0 2 0 0 0 0 0 0 0 0 5 4 65 99 35 5 91 88 100 100 100 100 100 100 100 100 100 100 87 27 5 5 28 34 4 2 0 2
92 19 32 89 68 6 5 2 0 0 0 3 4 0 0 26 3 20 42 97 99 100 98 100 100 100 100 100 100 100 100 100 100 100 80 99 92 68 47 11 50 13 1 0 0
64 31 77 33 6 5 5 0 0 3 52 39 0 0 64 95 46 5 2 100 96 100 100 100 93 100 100 100 100 100 100 100 99 100 100 41 78 97 98 100 72 5 5 4 0
88 11 98 12 5 7 10 0 1 5 5 5 5 78 100 100 43 5 3 73 100 100 100 99 91 100 100 100 100 100 100 100 100 96 89 99 98 89 99 51 6 5 5 5 0
10 39 8 5 8 42 35 5 5 5 58 23 82 83 77 5 5 3 76 100 100 100 100 72 91 100 100 100 100 100 100 100 100 100 100 100 100 100 14 5 4 5 8 4 30
84 10 4 4 66 32 67 6 6 5 68 94 21 8 91 97 99 99 100 100 100 100 64 100 100 100 100 100 100 100 100 100 100 100 100 100 100 100 31 12 5 77 11 44 100
12 8 5 32 48 46 80 68 68 41 100 100 99 88 99 100 90 99 100 100 100 100 100 50 99 100 100 100 100 100 100 100 100 100 100 100 100 64 20 5 24 85 58 57 100
9 54 5 5 32 54 79 37 99 100 38 100 100 98 96 100 100 100 100 99 98 100 100 99 98 100 100 100 100 100 100 100 100 100 94 94 100 100 1 2 4 90 83 67 100
11 25 13 61 95 80 84 81 95 100 99 100 91 100 98 86 84 100 100 100 100 100 100 100 100 63 49 100 100 100 100 100 100 91 40 68 100 14 52 11 13 70 96 88 100
55 52 77 87 91 92 63 91 100 100 100 100 100 100 98 97 100 100 100 100 100 100 100 100 100 100 100 100 100 99 100 100 98 25 17 100 67 76 52 25 52 29 100 100 100
41 41 72 34 64 84 52 96 90 100 95 100 100 100 92 35 100 100 100 100 100 100 100 100 100 100 100 100 87 100 76 88 15 15 88 100 98 100 76 100 100 100 98 100 100

GFSSW_prec_cloud_093.txt.gz
Cloud_Cover
79 99 99 14 29 30 92 90 24 5 5 6 13 81 89 100 100 100 100 84 58 5 76 66 17 5 0 3 4 6 5 1 66 100 100 84 100 100 100 6 68 98 100 100 100
100 100 99 98 99 96 100 100 100 93 43 99 66 79 100 100 100 100 100 78 100 100 100 100 100 34 5 0 0 5 16 62 58 92 100 8 100 100 100 95 66 57 100 100 100
100 100 100 100 100 100 100 100 100 100 91 100 100 100 100 100 89 100 100 100 100 93 53 100 100 51 17 5 2 0 0 100 90 6 8 88 100 100 100 100 15 42 100 100 100
100 100 100 100 100 100 100 100 100 100 100 100 91 87 5 39 45 95 100 100 100 94 100 9 97 87 100 69 3 1 2 88 98 98 5 94 86 100 100 100 100 100 98 60 17
100 100 100 100 100 100 55 61 61 100 76 61 62 9 69 9 6 5 5 30 78 94 86 75 99 72 62 93 7 2 5 13 100 100 65 100 100 100 100 100 100 100 100 27 5
100 100 100 100 97 66 100 7 10 22 38 82 77 28 12 5 5 5 5 5 7 51 10 18 21 12 5 5 9 16 4 2 34 100 100 100 100 100 100 100 100 100 100 100 100
100 100 100 100 100 100 100 19 40 100 1 0 3 5 5 2 0 5 1 5 5 5 4 5 1 0 5 36 70 55 49 5 6 100 100 100 100 100 100 100 100 100 100 100 100
100 100 100 100 100 86 52 78 100 39 4 5 11 12 3 3 0 5 0 0 0 0 0 0 0 1 38 70 20 98 97 7 6 96 100 100 98 100 100 100 100 100 100 100 100
100 100 100 98 100 60 100 79 5 5 15 46 17 5 2 1 0 3 4 2 0 0 0 0 0 0 3 66 85 100 33 100 100 100 100 100 100 100 100 98 100 95 100 100 100
100 100 100 100 100 100 100 5 5 5 20 21 45 4 0 0 0 0 0 0 0 0 0 0 0 0 0 10 10 100 100 100 100 100 100 100 100 100 100 100 100 100 100 100 100
100 100 100 100 98 67 33 62 84 100 100 5 2 0 0 0 0 0 0 0 0 0 0 0 0 0 4 34 92 100 99 26 100 100 100 100 100 100 100 100 100 100 100 100 100
100 100 96 93 100 98 100 95 98 5 52 5 3 0 0 0 0 0 0 0 0 0 0 1 0 5 5 100 100 100 100 13 100 100 100 100 100 100 100 100 100 100 100 100 100
100 100 100 100 100 100 100 82 5 9 2 3 4 3 0 0 0 0 0 0 0 0 0 0 1 10 1 98 100 100 100 100 100 100 100 100 100 100 100 100 100 100 100 100 100
100 100 100 100 100 100 39 28 7 3 1 0 0 0 0 0 0 0 0 0 1 0 0 3 77 7 79 100 100 100 100 100 100 100 100 100 100 100 100 100 100 100 100 100 100
100 100 100 100 100 79 6 7 5 47 5 0 0 2 0 0 0 0 4 0 2 5 50 0 0 98 100 100 100 100 100 100 100 100 100 100 100 100 100 100 100 100 100 100 100
100 100 100 100 94 65 39 94 12 43 4 1 0 0 0 0 0 0 1 91 5 2 11 29 5 97 100 100 100 100 100 100 100 100 100 100 100 100 100 100 100 100 100 100 100
100 100 100 100 100 100 75 24 16 5 2 2 0 0 0 0 0 2 99 100 100 100 100 96 86 93 89 96 100 100 100 100 100 100 100 100 100 100 100 100 100 100 100 100 100
100 100 100 100 100 100 88 36 6 5 5 0 0 0 0 0 16 100 100 100 100 100 93 100 100 17 100 94 100 100 100 100 100 100 100 100 100 100 100 100 100 95 87 100 100
100 100 100 100 100 78 61 8 5 4 0 4 0 0 4 100 41 100 100 100 94 19 100 99 99 99 54 96 100 100 100 100 100 100 100 100 100 100 100 100 100 100 100 53 5
100 100 100 100 41 23 29 10 5 3 5 28 58 50 62 100 100 100 72 60 5 88 100 45 97 45 100 93 100 100 100 100 100 100 100 100 100 100 100 100 96 86 89 7 5
100 99 97 9 30 78 53 5 4 5 25 91 100 100 100 99 100 100 94 79 71 100 100 100 74 83 100 54 100 100 100 100 100 100 100 100 100 100 100 100 100 48 17 5 5
100 98 11 5 98 85 73 4 0 5 97 100 100 100 100 100 100 100 98 100 93 100 100 87 100 100 5 90 100 100 100 100 100 100 100 100 100 100 100 100 99 62 11 5 12
80 70 5 20 76 68 58 36 47 100 100 100 100 100 100 100 98 100 100 96 100 98 86 100 99 100 100 93 100 100 100 100 100 100 100 100 100 100 98 89 100 94 49 27 67
75 73 80 93 5 4 11 81 100 100 100 100 100 100 100 100 100 82 89 100 100 100 100 100 100 100 100 65 100 100 100 100 100 100 100 100 100 100 100 94 97 100 100 91 58
84 65 17 88 98 33 67 67 100 97 62 100 79 100 100 100 100 100 100 100 100 100 100 100 100 100 100 100 100 100 100 100 100 100 100 100 100 100 100 100 100 100 64 34 30
100 97 13 5 5 24 77 97 100 94 99 73 100 99 92 99 100 100 100 100 100 100 100 100 95 100 100 100 100 100 100 100 100 100 100 100 100 100 100 77 55 94 69 79 89
79 34 42 3 50 97 52 44 99 98 48 100 92 96 99 86 100 100 100 100 100 100 100 100 100 100 100 100 100 100 100 100 100 100 100 100 100 7 7 83 100 100 100 100 100

GFSSW_prec_cloud_096.txt.gz
Cloud_Cover
8 100 68 13 74 95 25 5 47 68 100 71 6 12 12 10 5 45 64 83 69 91 100 71 8 97 100 96 49 24 12 15 18 5 5 35 93 84 94 100 100 97 3 4 27
100 100 80 84 100 100 63 5 75 72 38 83 61 21 7 47 76 100 100 100 100 100 6 87 100 78 100 100 100 99 22 98 74 57 10 5 2 1 11 100 88 37 5 5 0
98 67 93 100 98 100 100 100 100 100 100 100 99 27 5 19 35 92 95 5 5 2 7 5 8 96 100 100 100 100 97 81 5 4 32 5 1 2 3 29 40 69 18 1 4
79 100 100 100 100 100 100 100 100 100 100 100 100 100 54 81 31 28 5 5 52 5 5 1 0 3 40 90 98 8 86 70 40 0 3 0 0 0 6 91 100 100 100 100 100
100 100 100 100 100 100 100 100 100 100 100 100 100 74 76 47 20 10 30 5 28 5 5 5 5 3 5 5 5 5 80 51 96 64 5 4 0 0 1 100 100 60 99 100 100
99 100 100 100 100 100 100 100 100 76 100 100 100 100 98 40 8 98 19 36 5 5 5 5 4 4 1 19 7 4 5 5 5 29 30 2 1 0 2 100 100 96 89 100 100
5 92 99 100 100 100 100 100 100 100 100 100 100 96 99 51 77 5 64 93 3 0 0 0 0 5 5 4 1 3 1 2 0 4 5 5 1 0 98 100 100 95 79 100 100
22 70 99 82 31 100 100 100 99 48 93 100 94 26 53 93 5 6 87 2 0 2 0 0 0 0 0 0 0 0 0 0 0 27 37 100 0 0 69 100 100 99 7 100 100
73 100 100 100 100 100 100 100 100 100 57 43 44 96 83 32 21 100 100 2 5 0 0 0 0 0 0 0 0 0 0 0 0 18 99 100 1 3 100 7 100 100 100 97 100
100 100 100 100 100 100 100 100 100 68 28 9 97 100 84 98 100 9 1 1 0 0 0 0 0 0 0 0 0 0 0 0 0 0 100 82 3 5 100 11 25 84 100 100 100
100 100 100 100 100 100 100 100 100 100 48 64 56 100 100 68 3 5 0 0 0 0 0 0 0 0 0 0 0 0 0 0 0 0 100 70 2 100 100 11 67 100 100 100 100
100 100 100 100 100 100 100 100 100 100 100 100 100 59 12 5 2 0 0 0 0 0 0 0 0 0 0 0 0 2 1 0 0 2 100 79 6 62 100 100 100 100 100 100 100
100 100 100 100 100 100 100 100 100 100 96 100 99 32 5 0 0 0 0 0 0 0 0 0 0 3 8 1 0 4 5 17 3 98 100 61 6 3 96 100 100 100 100 100 100
100 100 100 100 100 100 100 100 100 100 19 5 4 0 2 5 0 0 0 0 0 3 29 11 4 0 4 87 65 1 50 90 63 100 100 100 8 100 100 99 100 100 100 100 27
100 100 100 100 100 100 100 100 100 100 74 0 0 0 0 0 0 0 0 0 0 0 26 0 5 11 1 6 100 77 20 68 99 100 99 95 74 98 100 100 100 100 100 100 100
100 100 100 100 100 100 100 98 30 86 61 62 3 1 0 0 0 0 0 0 0 53 100 12 0 54 100 14 86 47 100 32 100 100 76 100 94 100 100 100 99 100 100 100 100
100 100 100 100 100 100 100 98 99 94 19 49 34 0 0 0 0 0 0 0 9 97 99 98 90 93 89 2 27 100 60 100 100 100 83 100 100 100 100 100 84 100 100 100 100
100 100 100 100 100 100 100 100 90 97 96 70 5 1 0 0 4 4 1 5 61 100 5 58 1 65 100 15 77 84 81 18 100 100 100 100 100 100 100 100 100 100 100 100 100
100 100 100 100 100 100 100 100 100 95 11 5 5 0 0 13 45 62 75 17 63 62 96 95 12 99 100 28 95 34 85 66 100 100 100 100 100 100 100 100 100 100 100 100 100
100 100 100 100 100 100 100 100 99 6 5 0 5 24 83 92 62 81 83 79 58 5 52 19 98 51 93 100 100 86 54 98 100 100 100 100 100 100 100 100 100 100 97 100 100
100 100 100 100 100 100 89 58 23 10 2 1 81 100 100 100 99 100 100 58 35 20 5 98 77 100 100 94 58 47 62 100 100 100 100 100 100 100 100 100 100 100 100 100 100
100 100 100 100 100 82 75 8 3 5 5 7 12 100 100 100 100 100 100 100 93 67 49 100 100 100 100 87 94 100 94 100 100 100 100 100 100 100 100 100 100 100 100 100 100
100 100 100 100 100 93 70 27 3 43 6 100 100 83 100 100 77 90 43 40 46 5 95 100 94 100 100 52 27 62 100 100 100 100 100 100 100 100 100 100 100 100 100 100 95
100 100 100 100 24 15 8 20 5 12 95 100 79 92 100 100 100 100 64 90 93 48 100 100 100 99 100 92 65 88 100 100 100 100 100 100 100 100 100 100 100 100 100 100 100
100 100 100 100 94 61 10 5 55 98 56 96 99 100 100 90 95 57 89 100 100 99 100 100 100 100 98 100 100 100 100 100 100 100 100 100 100 100 100 100 100 100 100 92 100
100 100 100 85 84 16 56 83 98 98 88 98 99 100 100 97 100 100 98 100 100 100 100 100 100 100 100 100 100 100 100 100 100 100 100 100 100 75 100 100 100 100 100 100 100
100 100 100 100 77 57 45 30 63 70 30 97 99 94 92 92 100 100 100 100 100 100 100 100 100 100 100 100 100 100 100 100 100 100 100 100 100 100 100 100 100 100 100 100 100

GFSSW_prec_cloud_099.txt.gz
Cloud_Cover
100 100 66 14 66 64 99 93 6 7 5 5 5 41 30 100 100 100 100 96 12 5 27 68 47 56 88 67 7 4 0 0 3 5 12 96 100 97 1 0 0 0 40 83 2
100 100 78 100 95 75 100 83 97 93 100 56 69 44 83 100 100 100 100 100 100 40 28 39 73 21 15 19 2 0 0 4 5 5 0 5 22 100 11 0 0 0 98 100 15
100 9 91 99 100 100 100 100 100 100 100 100 100 100 100 100 100 100 100 100 100 51 5 17 0 35 4 0 1 0 0 0 0 4 5 5 5 56 89 0 0 2 0 27 88
27 9 95 100 100 100 98 98 100 100 100 100 100 100 100 100 100 100 18 100 100 100 100 97 9 0 0 3 0 0 0 0 0 0 5 14 63 6 49 4 0 0 3 2 80
100 98 100 100 100 100 100 26 69 100 100 100 100 100 100 64 96 100 11 37 95 100 40 31 0 0 0 5 0 0 0 0 0 5 4 13 18 6 1 5 4 5 3 4 5
100 100 100 100 100 100 100 27 74 100 100 100 99 100 100 100 96 100 100 98 100 100 5 3 6 5 84 4 4 0 0 0 0 0 6 33 6 0 4 44 5 94 7 2 1
100 100 100 100 100 89 17 5 5 14 93 100 81 99 100 100 100 100 100 95 71 100 26 16 90 94 56 1 0 0 0 0 0 0 0 5 0 5 6 43 0 5 5 5 5
100 100 100 100 100 100 12 47 5 5 49 100 90 100 100 97 100 64 100 99 87 100 46 100 100 10 0 0 0 0 0 0 0 0 4 3 0 0 2 1 0 4 4 4 14
100 100 100 100 100 100 99 98 100 100 100 100 67 100 71 83 68 72 93 61 6 56 100 100 43 5 0 0 0 0 0 0 0 0 0 0 0 0 0 0 0 0 27 3 0
100 100 100 100 67 72 52 100 67 99 100 99 89 68 90 100 100 100 100 100 100 100 100 42 2 0 0 0 0 0 0 0 0 0 0 0 0 0 0 0 0 0 4 4 4
100 100 100 100 86 80 69 90 100 100 100 100 100 99 100 100 100 100 100 100 98 6 25 0 0 0 0 0 0 0 0 0 0 0 0 0 0 0 0 2 0 0 5 1 8
100 100 100 100 100 99 70 93 100 100 100 100 99 54 84 100 100 100 100 34 0 0 0 0 0 0 0 0 0 0 0 0 0 0 0 0 0 0 0 0 0 6 83 100 97
100 100 100 100 100 100 100 100 100 100 95 100 80 100 93 100 100 82 5 0 0 0 0 0 0 0 0 0 35 34 7 0 0 0 47 0 0 0 0 0 44 43 39 100 54
100 100 100 100 100 100 100 100 100 100 100 100 89 79 58 100 56 44 2 0 0 0 0 0 0 3 0 2 7 100 65 39 2 3 81 36 1 0 0 17 78 75 100 99 100
100 100 100 100 100 100 100 100 100 100 100 100 100 100 100 100 99 25 5 0 3 0 0 0 0 0 0 1 4 7 90 94 100 100 100 5 1 0 14 8 95 32 86 76 33
100 100 100 100 100 100 100 100 100 100 100 74 98 99 97 99 78 6 37 2 0 0 0 0 0 16 0 0 93 9 100 100 100 75 62 0 1 3 100 100 100 46 10 85 26
100 96 100 97 91 100 100 100 100 100 42 60 75 97 23 5 2 4 3 0 0 3 0 0 0 0 43 98 19 97 82 83 100 41 35 1 4 96 100 100 100 96 21 100 100
100 100 100 92 100 97 99 100 100 100 100 100 100 100 72 5 2 1 4 5 0 9 74 5 4 9 100 99 93 12 18 67 15 4 4 100 64 100 100 100 100 100 100 96 100
100 100 100 100 100 100 100 100 95 84 100 100 100 79 67 25 0 0 0 4 20 69 5 5 0 97 81 27 61 96 6 100 100 100 100 95 100 100 100 100 100 100 100 100 100
100 100 100 100 100 100 100 100 100 100 100 98 37 29 5 2 0 4 0 0 5 29 41 18 41 2 89 75 84 39 100 100 100 100 91 100 100 100 100 100 100 100 100 99 100
100 100 100 100 100 100 100 100 100 100 100 94 73 28 5 0 1 5 18 73 99 70 86 29 18 95 19 100 98 63 100 71 100 98 100 100 100 100 100 100 100 97 100 100 100
100 100 100 100 100 100 100 100 100 100 100 100 21 5 5 3 5 5 3 12 46 81 5 24 80 88 99 100 100 100 100 100 99 100 100 100 100 100 100 100 100 100 100 100 100
100 100 100 100 100 100 100 100 100 100 95 5 5 5 8 4 41 71 98 89 30 68 41 100 47 100 100 100 100 100 100 86 98 100 100 100 100 100 100 100 100 100 100 56 100
100 100 100 100 100 100 100 100 100 100 18 5 4 4 28 19 46 55 26 49 93 40 91 100 99 100 100 99 100 75 100 100 100 100 100 100 100 100 100 100 100 100 97 100 100
100 100 100 100 100 100 100 100 25 49 8 3 2 21 54 44 5 2 2 98 74 100 100 100 100 100 100 84 61 14 98 100 100 100 100 100 100 100 100 100 100 100 100 98 100
100 100 100 100 100 100 100 100 100 95 13 4 5 8 74 39 98 97 100 100 100 100 100 100 100 100 100 100 100 100 100 100 100 100 100 100 100 100 100 100 100 100 100 99 100
100 100 100 100 100 100 100 100 100 27 48 99 92 100 98 20 14 78 100 100 100 100 100 100 100 100 100 100 100 100 100 100 100 100 100 100 100 100 100 100 100 100 100 100 100

GFSSW_prec_cloud_102.txt.gz
Cloud_Cover
5 5 58 29 89 96 100 100 100 72 22 5 5 5 9 16 46 60 100 100 100 100 100 99 96 55 56 25 7 3 1 0 0 0 0 0 0 0 2 0 2 4 5 1 0
62 50 5 48 100 100 100 100 62 5 19 40 100 85 57 5 38 5 54 93 100 100 100 100 100 68 96 100 81 92 14 4 0 0 0 0 0 0 0 0 5 5 5 5 0
80 100 80 95 92 18 100 100 92 51 84 63 94 26 18 91 99 75 34 100 100 100 100 62 77 61 39 85 100 96 28 0 0 0 0 0 0 0 0 0 3 5 3 4 5
80 100 100 99 100 100 99 84 100 100 100 100 100 100 100 95 99 100 100 100 100 98 100 96 5 5 19 81 15 1 0 0 1 0 0 0 0 0 0 0 5 23 41 5 15
88 98 100 100 100 100 100 97 100 100 99 100 100 100 100 100 7 96 100 100 94 47 27 100 73 100 93 20 4 0 29 63 100 30 2 0 0 0 0 4 91 94 100 100 13
100 100 100 100 100 95 100 100 100 99 100 100 100 100 83 15 6 98 98 100 100 100 99 100 100 100 28 100 82 76 100 100 100 35 5 0 0 0 0 5 5 12 18 73 100
100 100 100 100 99 100 100 64 100 100 75 100 100 73 13 16 5 28 43 100 96 76 62 29 90 99 85 80 99 99 68 100 99 24 1 0 0 0 0 0 0 1 5 6 38
80 95 100 100 100 74 24 87 99 75 79 100 85 38 93 9 5 77 92 100 59 5 44 74 84 100 100 100 100 100 100 97 100 100 18 0 0 0 0 0 0 0 0 4 5
100 99 71 98 95 90 95 87 71 59 92 100 100 100 100 100 93 31 76 95 7 96 51 100 70 100 100 100 100 63 1 0 2 4 0 0 0 0 0 0 0 0 0 5 4
100 99 37 95 97 34 74 56 98 85 72 54 74 95 85 95 100 100 99 29 28 7 8 49 57 92 100 100 10 1 0 0 0 25 0 0 0 0 0 0 0 0 0 4 5
100 100 100 100 74 88 80 88 91 70 68 70 96 9 99 79 93 100 94 43 57 6 74 14 67 100 100 90 4 0 0 0 0 0 0 0 0 0 0 0 0 0 0 0 0
100 100 100 100 97 46 78 80 56 97 99 93 27 39 100 99 86 100 100 86 87 36 100 100 100 100 85 18 4 5 16 4 0 0 0 0 0 0 0 0 0 0 0 0 0
100 100 100 100 100 100 100 100 94 58 47 100 100 98 100 100 100 100 92 100 100 77 100 88 92 100 91 2 4 10 60 0 2 1 0 2 0 0 0 0 0 0 0 0 0
91 100 100 100 100 100 100 100 100 100 100 100 100 100 100 99 100 100 19 5 9 100 100 95 81 10 5 8 6 4 0 4 21 44 55 3 63 0 0 0 0 0 0 0 0
100 100 77 99 100 100 100 100 100 100 100 100 100 100 100 100 100 100 100 100 100 84 6 34 5 5 4 0 0 0 0 10 34 100 37 0 70 0 0 0 0 0 0 0 5
100 100 74 86 100 100 100 100 100 100 100 100 100 100 100 100 95 91 83 55 63 100 45 1 6 0 0 0 0 0 0 23 100 75 75 0 4 0 0 0 4 4 10 99 75
100 98 100 88 85 71 100 100 100 95 100 73 100 100 100 99 84 99 98 98 58 11 5 5 3 0 0 0 0 0 72 57 48 23 20 98 6 0 0 0 18 35 97 100 100
100 99 90 100 97 99 98 100 94 8 92 100 100 100 73 19 5 7 4 10 6 5 5 6 0 0 4 14 9 0 11 94 60 6 21 15 2 2 16 3 6 100 100 100 100
100 96 100 100 100 100 100 98 71 99 100 100 99 100 100 97 6 5 5 5 4 8 21 5 6 0 0 1 36 2 3 12 5 40 94 80 100 100 80 100 100 100 100 100 100
100 100 100 100 100 100 94 100 100 100 100 100 100 81 100 100 78 28 46 44 5 42 52 26 35 0 5 1 2 8 93 72 66 100 100 100 100 100 100 100 100 100 100 100 100
100 100 100 100 100 100 100 100 100 100 100 100 100 100 100 100 100 71 8 2 13 26 50 28 10 4 0 70 72 61 48 100 94 83 100 100 100 100 100 100 100 100 100 100 100
100 100 100 100 100 100 100 100 100 100 100 100 100 100 96 91 12 5 0 64 3 5 5 7 55 59 92 100 100 100 100 99 98 100 100 100 100 100 100 100 100 100 100 100 100
100 100 100 100 100 100 100 100 100 100 100 100 100 100 86 42 28 5 4 17 92 48 76 87 72 64 78 83 96 100 100 100 100 100 100 100 100 100 100 100 100 100 100 100 100
100 100 100 100 100 100 100 100 100 100 100 100 100 100 100 19 20 15 1 1 3 4 60 78 100 99 100 100 100 100 100 100 100 100 100 100 100 100 100 100 100 100 100 100 100
100 100 100 100 100 100 100 100 100 100 100 100 98 87 18 19 5 4 5 7 4 5 78 100 100 100 77 100 100 99 97 100 100 100 100 100 100 100 100 100 100 100 100 100 100
100 100 100 100 100 100 100 100 100 100 100 66 54 5 13 6 5 51 8 57 98 100 100 100 100 100 100 100 100 100 100 100 100 100 100 100 100 100 100 100 100 100 100 100 100
100 100 100 100 100 100 100 100 100 100 100 86 45 58 97 31 84 100 89 96 100 100 100 100 100 100 100 100 100 83 100 100 100 100 100 100 100 100 92 100 100 100 100 100 100

GFSSW_prec_cloud_105.txt.gz
Cloud_Cover
99 5 0 0 5 10 3 1 5 5 60 100 100 100 100 100 38 82 12 38 5 5 5 5 5 24 14 20 91 100 44 100 100 100 100 82 5 1 0 0 0 0 0 0 0
100 61 0 5 2 3 4 3 2 5 39 100 100 100 100 100 89 84 80 78 5 71 76 41 5 95 74 100 70 100 8 83 94 100 25 40 3 3 0 0 0 0 0 0 0
100 100 41 5 5 1 4 5 5 5 63 68 54 100 100 100 100 100 100 100 92 97 48 10 5 45 38 99 100 61 6 85 84 100 100 14 39 2 2 2 0 0 0 0 0
100 100 99 5 5 5 5 5 7 5 5 100 100 93 100 100 99 100 100 100 100 100 88 33 5 46 88 58 15 1 16 60 100 98 73 100 21 91 100 97 56 38 0 0 0
100 100 67 5 5 5 7 5 6 5 6 99 100 100 99 100 68 100 100 100 100 100 46 53 5 5 5 5 20 41 100 100 100 100 100 100 100 90 53 100 92 0 0 0 0
92 100 76 35 52 22 100 5 5 5 5 83 99 97 100 100 100 100 100 100 100 100 17 5 5 5 5 98 100 89 90 5 12 100 100 100 63 8 100 100 100 81 0 0 0
38 37 5 5 5 5 5 5 5 35 16 92 100 100 85 95 97 100 100 100 18 15 12 20 6 4 4 7 5 5 5 100 100 100 100 72 6 97 84 0 0 0 0 0 0
6 85 12 91 27 5 5 5 5 5 63 100 87 100 100 98 100 47 31 92 70 98 5 5 5 6 3 5 5 4 4 61 100 100 100 100 84 17 1 0 0 0 0 0 0
79 39 77 5 51 23 5 5 5 5 59 100 11 33 95 88 85 40 45 99 43 5 5 82 6 4 50 33 6 9 3 4 12 99 100 97 5 5 1 3 1 1 1 0 0
97 68 66 89 86 56 78 5 5 12 5 12 63 8 29 6 7 5 40 58 14 22 95 100 29 5 91 99 85 79 7 3 64 92 100 100 3 0 5 5 21 97 0 0 0
100 100 71 100 91 98 58 100 6 39 6 5 10 5 65 48 89 41 49 45 68 7 66 12 57 98 100 100 88 13 1 5 99 100 100 82 1 3 5 6 34 0 0 0 0
100 100 100 100 32 72 80 68 87 96 28 15 87 38 69 8 51 100 13 16 26 5 8 69 44 99 100 100 100 97 86 86 100 100 40 4 0 5 4 0 0 0 0 0 0
100 100 100 100 14 96 91 78 71 43 99 100 99 72 66 88 86 97 100 100 100 79 24 98 100 46 53 29 5 6 100 100 100 100 5 2 0 0 0 0 0 0 0 0 0
100 100 100 100 100 83 84 30 83 80 34 100 100 100 99 100 100 100 100 100 100 100 96 77 88 75 14 96 100 11 95 40 26 12 4 1 3 0 0 0 0 0 0 0 0
100 100 100 100 100 100 100 48 81 11 51 5 57 100 100 100 100 100 100 100 100 100 100 100 100 100 100 80 100 83 100 100 46 0 0 0 0 0 0 0 0 0 0 0 55
100 100 100 100 100 100 100 98 78 57 6 5 5 100 99 100 76 93 100 100 100 98 100 72 58 87 100 100 42 5 5 1 3 4 2 0 4 0 0 0 0 1 15 19 43
100 100 100 100 100 100 100 100 90 35 9 0 5 86 100 100 99 100 100 100 72 42 76 88 70 33 5 6 26 40 5 4 8 1 2 0 1 0 7 6 37 81 99 47 94
100 100 100 100 100 100 100 100 34 2 5 6 61 96 100 100 92 100 100 100 100 100 96 100 62 100 100 82 13 1 22 88 8 4 4 29 84 89 100 100 100 100 100 100 100
100 100 100 85 100 99 64 100 58 6 58 97 97 95 58 100 100 100 100 100 100 98 44 5 3 4 2 0 3 0 0 9 78 6 17 6 36 99 100 100 100 100 100 100 100
100 100 97 100 100 100 100 97 89 100 100 100 100 99 99 100 89 99 98 100 98 89 80 48 43 0 0 0 2 1 51 28 91 44 98 100 99 100 100 100 100 100 100 100 100
100 100 100 100 100 100 100 100 100 100 100 100 100 100 100 100 100 81 98 100 100 96 5 2 4 2 0 0 8 67 69 91 89 78 100 100 100 100 100 100 100 100 100 100 100
100 100 100 100 100 100 100 100 100 100 100 100 100 100 100 99 100 85 100 84 48 5 3 2 66 74 29 94 75 94 100 100 100 100 100 100 100 100 100 100 100 100 100 100 100
100 100 100 100 100 100 100 100 100 100 100 100 100 100 100 100 100 100 90 10 0 0 5 6 77 78 100 100 96 99 100 100 100 100 100 100 100 100 100 100 100 100 100 100 100
100 100 100 100 100 100 100 100 100 100 100 100 100 100 100 97 49 13 5 2 2 2 1 21 97 85 25 96 100 100 100 100 100 100 100 100 100 100 100 100 100 100 100 100 100
100 100 100 100 100 95 100 100 100 100 100 97 100 100 100 69 74 13 3 4 1 2 62 98 100 100 100 100 100 100 100 100 100 100 100 100 100 100 100 100 100 100 100 100 100
100 100 100 100 100 100 100 100 100 100 100 72 100 100 100 100 49 7 100 64 69 34 100 100 100 100 100 100 100 100 100 100 100 100 100 100 100 100 100 100 100 100 100 100 100
100 100 100 100 100 100 100 100 100 100 100 100 100 100 99 71 100 83 92 93 99 100 100 100 100 100 100 100 100 100 100 100 100 100 100 100 100 100 100 100 100 100 100 100 100

GFSSW_prec_cloud_108.txt.gz
Cloud_Cover
100 100 100 100 100 50 100 100 62 5 5 5 5 5 5 62 58 100 100 100 100 100 100 79 27 52 8 11 5 5 4 1 84 100 100 100 100 100 64 5 5 5 1 0 0
100 100 100 100 14 4 78 100 100 50 5 5 5 3 5 5 39 98 100 100 100 100 100 98 100 100 99 59 5 5 17 7 97 100 100 100 95 100 34 78 59 52 4 0 0
100 100 98 5 8 12 20 100 91 97 4 0 5 2 4 6 6 22 99 95 100 100 100 100 100 100 100 100 99 14 69 56 98 100 18 5 27 100 100 100 100 100 71 6 0
100 100 23 5 5 78 0 4 93 100 66 2 0 1 5 5 15 12 100 100 100 100 100 99 100 100 100 100 100 90 63 76 86 45 5 5 5 100 100 100 100 95 100 93 15
100 100 15 5 5 4 2 0 5 5 7 2 5 5 5 44 50 43 93 100 96 98 93 100 100 97 100 100 100 8 46 63 13 96 99 100 96 100 100 100 100 100 100 100 100
100 100 100 35 5 5 4 5 5 47 8 5 5 5 5 54 5 11 65 89 79 100 100 100 100 96 20 60 31 48 52 5 17 94 4 12 59 26 99 100 100 90 100 100 100
100 100 100 98 5 5 5 3 5 5 5 67 95 28 13 7 5 54 47 100 100 100 100 100 100 99 23 78 90 91 45 9 31 5 5 4 5 3 100 100 100 100 100 100 100
100 100 94 79 44 5 5 5 5 5 5 83 20 65 40 6 40 18 100 76 96 100 100 100 88 11 36 92 6 1 1 5 5 5 4 5 92 4 1 4 94 100 100 100 100
100 100 99 64 45 76 5 5 17 9 5 10 37 34 27 21 23 15 86 92 81 98 100 85 77 100 100 29 5 5 4 4 4 2 5 2 45 5 5 4 19 100 100 100 100
100 100 100 100 19 94 5 5 5 7 5 5 32 11 20 79 60 96 54 38 31 5 31 57 28 88 52 37 1 5 0 0 0 5 19 16 29 99 4 0 8 100 100 100 100
100 100 100 100 100 97 23 6 5 24 100 50 11 29 28 22 42 36 35 35 10 6 74 26 5 22 95 26 4 1 1 1 5 5 5 5 5 14 34 5 13 100 100 100 100
100 100 100 100 100 100 90 94 81 19 29 98 92 100 91 6 5 7 5 5 5 5 5 11 7 99 56 7 5 10 15 44 0 30 5 3 0 0 4 34 99 100 100 100 93
100 100 100 100 100 98 76 100 100 82 6 5 78 100 60 98 14 63 54 93 24 85 87 86 33 40 57 84 78 100 98 72 10 64 98 17 4 67 100 100 100 100 100 82 17
100 100 100 100 100 100 100 100 100 100 74 71 98 51 99 100 99 26 41 33 100 100 100 100 100 100 100 100 100 100 100 97 20 51 48 100 20 37 100 97 98 99 22 26 55
100 100 100 100 100 100 100 100 100 100 100 98 86 100 100 82 77 100 100 100 100 100 100 96 69 100 100 100 100 100 100 100 100 84 53 59 19 0 23 0 0 10 99 99 100
100 100 100 100 100 100 100 100 100 100 100 91 99 68 86 99 58 92 87 100 100 96 97 100 100 100 100 100 100 100 100 100 99 100 43 2 10 0 3 100 100 100 100 100 100
100 100 100 100 100 100 100 100 100 100 99 97 94 100 100 92 69 5 69 80 65 22 94 100 100 100 100 100 100 95 44 96 79 79 4 6 33 6 100 100 100 100 100 100 100
100 100 100 100 100 96 100 100 100 100 100 100 100 63 100 100 84 98 100 93 100 65 98 100 100 100 100 100 46 12 17 62 6 4 5 1 4 89 99 98 100 100 100 100 100
100 100 100 100 94 100 100 100 98 88 100 90 99 96 100 86 72 78 100 92 98 65 97 79 92 98 100 97 79 89 100 100 66 0 5 0 1 55 61 86 69 100 100 100 100
100 100 97 98 95 94 86 100 56 86 99 100 95 100 100 100 99 100 100 93 100 100 100 90 51 100 100 58 64 91 74 62 96 87 69 1 34 98 100 100 100 100 100 100 100
100 100 100 76 100 100 40 84 91 98 100 100 100 100 100 99 99 100 100 100 100 100 100 100 100 92 22 7 2 4 36 83 70 47 73 60 96 100 100 100 100 100 100 100 100
100 100 87 100 97 94 98 99 100 100 100 100 100 100 100 100 100 100 100 100 100 100 100 85 57 82 0 88 61 10 48 69 100 100 100 79 100 100 100 100 100 100 100 100 100
100 88 100 100 100 100 100 100 100 100 100 100 100 100 99 100 100 100 100 100 100 73 3 56 34 40 43 100 100 100 98 100 100 100 100 100 100 100 100 100 100 100 100 100 100
100 94 100 100 100 100 100 100 100 100 100 100 100 100 100 100 100 100 100 76 5 1 2 5 47 14 100 92 99 100 100 100 100 100 100 100 100 100 100 100 100 100 100 100 100
100 96 100 100 100 100 100 100 100 100 100 100 100 100 100 100 100 100 86 5 0 4 4 34 98 94 100 100 100 100 100 100 100 100 100 100 100 100 100 100 100 100 100 100 100
100 100 100 100 100 100 100 100 100 100 100 100 100 100 100 100 100 100 75 74 5 6 79 100 100 96 100 100 100 100 100 100 100 100 100 100 100 100 100 100 100 100 100 100 100
100 100 100 100 100 100 100 100 100 100 100 100 100 100 100 100 99 81 97 93 46 100 100 100 100 100 100 100 100 100 100 100 100 100 100 100 100 100 100 100 100 100 100 100 100

GFSSW_prec_cloud_111.txt.gz
Cloud_Cover
95 100 100 100 100 100 100 100 100 97 97 5 5 5 5 5 12 5 7 9 60 5 30 100 100 100 100 100 100 100 94 98 59 5 5 27 15 100 27 6 12 14 9 1 1
99 70 100 100 100 100 100 100 99 85 45 4 5 5 5 5 5 5 5 5 5 5 18 91 100 100 100 100 100 100 100 100 80 7 48 100 96 86 21 30 76 72 90 18 3
100 100 100 100 100 100 100 99 57 94 100 6 4 0 4 5 5 5 5 5 5 0 5 82 96 100 100 100 100 100 100 97 56 100 100 21 6 54 98 67 78 84 85 7 99
100 100 100 100 100 100 100 100 100 100 100 98 14 3 0 0 0 5 5 5 5 0 3 53 98 100 100 100 100 100 100 100 100 53 72 67 84 96 39 99 100 96 77 31 100
100 100 100 100 100 100 100 100 100 100 100 100 52 5 3 5 3 0 0 0 1 5 5 23 32 73 100 100 100 100 100 88 97 100 84 55 68 47 100 45 5 79 100 100 100
100 100 100 100 100 100 100 100 100 100 100 93 14 5 5 1 1 0 0 0 3 5 42 25 23 96 100 100 100 100 100 100 100 100 100 47 58 98 89 64 12 6 8 72 99
100 100 100 100 100 100 100 100 100 100 100 100 48 8 5 0 2 0 3 5 4 1 5 49 62 71 100 100 100 100 100 100 100 100 95 99 99 100 18 13 6 54 91 21 15
100 100 100 100 99 100 100 100 100 100 100 100 100 97 10 4 2 5 15 18 5 5 5 26 51 96 100 100 100 100 100 100 100 100 100 99 100 43 12 5 5 5 5 45 97
100 100 100 100 100 100 100 100 100 100 100 100 100 23 56 4 5 21 4 8 63 11 10 31 71 48 92 100 100 100 100 100 100 100 97 58 87 24 8 5 2 5 35 71 100
100 100 100 100 100 100 100 100 100 100 96 71 27 9 2 2 5 5 94 93 7 6 37 8 16 78 100 100 99 90 78 91 100 100 13 62 62 5 4 5 5 12 85 100 84
100 100 100 100 100 100 100 84 86 47 24 31 30 5 4 5 2 4 5 5 5 17 100 60 5 24 41 40 75 78 12 1 5 5 5 5 17 36 2 4 4 100 100 28 5
100 100 100 100 100 100 100 100 100 36 10 20 12 5 5 3 5 15 50 28 5 3 16 27 89 34 5 5 5 5 5 5 4 5 0 0 1 26 22 100 94 48 56 76 5
100 100 100 100 100 100 100 100 48 66 41 54 13 6 8 5 3 1 5 26 100 98 28 7 6 5 29 21 50 35 42 84 30 10 8 10 1 100 99 5 5 2 13 53 81
100 100 100 100 100 100 100 100 100 100 100 78 77 100 100 96 11 100 100 64 93 100 100 100 100 95 97 100 100 93 100 52 99 99 72 100 18 5 3 4 1 93 100 100 100
100 100 100 100 100 100 100 100 100 95 100 37 7 17 68 32 38 98 99 100 100 100 100 100 100 100 100 100 90 98 100 90 100 100 100 100 94 0 1 48 95 100 100 100 100
100 100 100 100 100 100 100 100 100 100 90 100 100 93 100 93 58 100 20 10 90 90 89 100 100 100 100 86 100 100 97 100 100 100 100 100 35 24 20 100 100 100 96 75 52
100 100 100 100 100 100 100 100 100 100 100 90 98 95 97 94 100 100 72 65 100 100 100 75 47 17 54 100 99 100 100 100 100 100 100 100 100 78 100 100 100 100 100 81 48
100 100 100 100 100 100 100 100 100 29 100 100 100 100 100 100 100 100 100 100 100 100 86 53 92 96 100 100 98 100 100 100 100 100 99 100 42 5 99 60 82 100 99 72 72
100 100 100 100 100 100 100 88 5 15 42 90 96 100 99 100 100 100 100 78 100 100 100 96 55 100 100 100 48 56 85 89 93 54 7 4 18 61 76 64 54 67 58 65 73
100 100 100 100 100 100 100 21 5 54 100 100 100 73 96 100 100 100 100 100 100 98 100 100 100 100 100 99 100 100 93 77 80 87 89 4 4 26 68 90 74 72 99 83 99
100 100 100 100 100 85 20 21 66 89 56 70 100 100 100 100 100 100 100 99 62 94 100 100 100 100 87 93 89 60 48 11 21 29 100 98 44 100 100 100 100 100 100 100 100
100 100 100 100 100 92 16 14 45 100 98 97 95 100 100 100 100 100 100 98 100 100 100 98 100 100 100 99 100 95 12 77 99 93 100 100 100 100 100 100 100 100 100 100 100
100 100 100 96 79 44 9 47 74 100 100 100 100 100 100 100 100 100 100 100 100 100 100 83 65 41 100 100 96 99 100 74 100 100 100 100 100 100 100 100 100 100 100 100 100
100 100 100 100 84 12 43 82 94 100 100 100 99 95 100 100 100 100 100 100 100 95 62 47 17 4 38 49 72 95 100 98 100 100 100 100 100 100 100 100 100 100 100 100 100
100 100 79 87 74 70 100 100 100 100 100 100 100 100 100 100 100 100 100 100 90 74 8 66 70 5 15 38 100 97 94 100 100 100 100 100 100 100 100 100 100 100 100 100 100
97 40 78 98 100 100 100 100 100 100 100 100 100 100 100 100 100 100 100 100 87 75 100 63 74 89 48 29 100 100 100 100 100 100 100 100 100 100 100 100 100 100 100 100 100
100 100 100 100 100 100 100 100 100 100 100 100 100 100 100 100 100 100 100 100 98 26 72 98 86 92 78 100 100 100 100 100 100 100 100 100 100 100 100 100 100 100 100 100 100

GFSSW_prec_cloud_114.txt.gz
Cloud_Cover
100 99 98 100 100 98 97 83 84 57 85 100 97 36 5 10 5 63 73 56 99 46 5 8 5 5 9 81 88 100 100 100 100 100 100 100 100 100 16 8 73 10 4 5 6
100 96 100 100 100 100 28 100 100 100 100 100 98 57 66 98 53 86 30 23 95 99 100 96 98 19 5 5 56 100 100 100 100 100 100 100 100 100 56 66 100 96 5 5 5
100 96 100 100 100 100 100 100 100 100 100 100 100 100 100 100 100 100 100 67 36 98 52 80 24 18 5 5 44 82 93 100 100 100 100 100 100 100 100 55 100 69 9 22 98
100 100 58 98 100 100 100 100 19 100 100 100 100 100 100 100 11 17 23 8 9 15 5 7 35 63 89 5 10 78 100 100 100 100 100 100 100 100 100 100 90 30 34 10 12
100 100 100 100 100 100 100 100 100 82 100 100 100 100 100 100 100 100 91 80 18 5 4 5 13 85 9 36 5 55 99 100 100 100 100 100 100 100 100 100 100 55 88 90 35
100 100 99 100 100 100 100 100 71 100 99 100 100 100 100 100 100 100 100 100 100 9 5 5 5 5 26 6 47 12 50 100 100 100 100 100 100 100 100 100 100 100 100 53 33
100 100 100 100 100 100 100 100 100 100 100 100 100 100 100 100 100 100 100 100 100 64 12 2 0 2 5 6 7 5 19 100 100 100 100 100 100 100 100 100 100 100 100 98 98
100 100 100 100 100 100 100 100 100 100 100 100 100 93 100 100 100 100 100 100 100 68 5 6 2 0 5 17 5 5 5 44 58 100 100 100 100 100 100 100 100 100 100 100 100
100 100 100 100 100 100 100 100 100 99 100 100 74 85 99 100 100 100 100 100 100 57 46 33 33 0 3 5 5 5 4 12 95 100 100 100 100 100 100 100 100 100 100 90 18
100 100 100 100 100 100 100 100 100 100 94 100 98 29 74 100 100 100 98 48 69 81 71 7 5 0 12 21 12 16 5 5 5 64 100 100 100 100 100 100 100 89 100 96 75
100 100 100 100 100 100 100 99 99 52 100 100 93 48 45 5 99 73 12 24 6 84 43 16 5 7 0 5 4 23 50 5 6 16 7 96 100 100 100 78 47 27 5 5 5
100 100 100 100 100 100 100 96 100 100 94 100 100 100 23 97 31 19 16 5 66 20 4 4 5 1 3 5 4 5 5 66 36 5 5 15 12 5 4 0 0 5 5 2 3
100 100 100 100 100 100 100 100 95 93 73 80 100 100 42 93 26 10 49 12 21 6 24 5 9 4 5 43 82 17 5 5 9 5 6 5 55 6 3 1 0 2 37 46 5
100 100 100 100 100 100 100 100 100 100 100 100 66 9 99 100 24 42 34 79 45 31 98 66 73 96 100 96 100 100 91 96 100 36 6 9 2 87 70 30 2 98 100 95 29
100 100 100 100 100 100 100 99 100 100 100 6 3 1 5 5 5 5 5 5 60 6 22 76 5 5 5 7 29 100 100 100 100 99 40 34 47 95 35 1 6 100 100 100 100
100 100 100 100 100 100 100 100 100 100 88 5 5 10 5 22 17 47 91 4 5 6 93 100 86 5 99 100 100 100 100 100 100 100 93 68 92 98 85 20 99 100 100 100 100
100 100 100 100 100 100 100 100 100 100 12 18 91 100 100 22 91 60 80 90 70 74 94 25 20 21 100 100 100 100 100 100 100 62 5 2 4 11 15 100 100 100 100 100 100
100 100 100 100 100 100 100 100 100 11 29 98 38 49 81 47 50 99 100 100 100 100 100 74 100 38 100 100 100 100 100 100 75 73 97 5 2 95 92 100 100 100 100 100 97
100 100 100 100 100 100 100 100 86 16 36 41 19 84 45 8 67 98 90 100 100 100 100 93 99 100 100 100 100 99 100 100 100 65 36 92 73 12 43 99 54 68 72 100 98
100 100 100 100 100 100 66 76 33 85 29 49 49 6 5 15 69 99 94 100 100 100 84 90 99 98 87 100 100 100 80 100 99 98 100 100 98 76 87 74 83 96 100 100 100
100 100 100 100 100 100 94 51 23 46 94 78 88 76 20 98 94 88 100 97 24 83 100 100 100 100 100 100 100 85 92 100 100 100 100 100 92 100 100 100 100 91 92 100 100
100 100 100 100 100 100 84 92 24 79 99 41 88 98 100 95 99 79 97 100 100 100 96 100 100 100 100 100 47 6 99 100 100 99 100 100 54 100 100 100 91 100 99 100 100
100 100 100 100 100 99 85 33 97 74 100 53 94 98 100 100 100 99 100 100 100 78 100 100 100 100 97 96 92 100 83 100 62 62 100 100 97 100 100 100 100 100 100 100 100
100 100 100 100 96 100 99 91 35 81 9 42 99 100 100 100 99 99 100 100 100 100 100 100 97 32 70 94 42 100 100 85 100 100 99 100 100 100 100 100 100 100 100 100 100
100 90 18 95 100 87 47 31 89 74 59 97 100 100 100 100 100 100 100 100 100 100 88 62 29 10 5 5 78 86 99 97 100 100 100 100 100 100 100 100 100 100 100 100 100
100 16 63 61 81 68 84 74 100 100 100 100 100 92 87 90 100 100 100 100 100 76 7 81 28 86 100 48 89 100 100 100 100 100 100 100 100 100 100 100 100 100 100 100 100
100 35 78 13 78 67 37 100 100 100 100 100 100 100 100 100 100 100 100 74 86 72 76 100 93 100 93 88 100 100 100 100 100 100 100 100 100 100 100 100 100 100 100 100 100

GFSSW_prec_cloud_120.txt.gz
Cloud_Cover
100 100 100 100 100 100 100 79 100 100 100 100 100 100 100 100 85 96 78 94 95 77 100 92 100 100 100 100 100 100 78 30 40 4 100 45 5 5 100 100 100 100 100 100 99
100 100 100 100 100 100 100 100 100 100 100 93 100 100 100 100 100 78 100 100 100 17 5 26 50 10 62 76 100 100 46 21 5 8 57 20 5 5 74 95 100 100 100 100 100
100 100 100 100 100 100 100 100 100 100 100 66 96 78 100 100 100 100 100 100 100 98 21 5 5 6 15 31 18 100 99 10 6 9 31 51 20 5 10 98 100 100 100 100 100
100 100 96 100 100 100 100 100 100 100 100 100 100 100 100 100 100 100 100 100 100 100 89 54 75 20 5 5 27 100 100 71 74 5 8 5 66 5 39 100 100 39 80 99 100
100 100 100 99 96 91 100 100 100 100 84 86 75 99 100 100 100 100 100 100 100 100 100 100 66 57 17 40 17 51 58 69 10 5 5 7 16 7 35 34 49 100 100 100 99
100 100 100 100 80 100 100 100 100 100 99 98 69 98 100 100 100 100 100 100 100 100 100 91 98 65 91 100 97 75 72 36 5 5 5 5 5 5 6 20 5 100 100 100 100
100 100 100 100 100 100 100 100 100 100 100 100 50 48 56 100 100 100 100 100 100 100 100 100 100 100 100 100 100 100 99 79 100 13 5 0 0 7 3 43 20 7 27 76 100
100 100 100 100 100 100 100 100 100 100 100 99 57 33 82 80 100 100 100 100 100 100 100 100 100 100 100 100 98 69 100 43 79 40 5 6 25 9 4 4 5 26 85 100 62
100 100 100 100 100 100 100 100 100 100 100 100 100 69 5 56 23 100 100 100 100 100 100 100 100 100 100 100 91 100 5 26 90 98 41 8 86 100 100 78 25 42 28 64 83
100 100 100 100 100 100 100 100 100 100 100 100 100 100 81 75 97 100 100 100 100 100 100 100 100 100 100 100 34 5 15 71 38 87 9 14 3 5 15 45 22 4 5 6 0
100 100 100 100 100 100 100 100 100 100 100 100 100 100 100 100 100 100 100 100 100 100 100 100 100 100 100 100 74 82 69 5 5 5 88 0 0 0 0 0 5 5 0 0 1
82 100 100 100 100 100 100 86 100 100 93 100 100 100 100 100 94 100 73 55 19 32 30 5 8 86 66 100 100 100 100 82 5 1 1 0 0 1 0 0 0 0 0 0 0
100 100 100 100 100 100 99 100 100 66 6 52 100 100 100 99 90 38 6 4 17 6 15 5 30 98 100 100 100 100 100 47 5 5 0 1 0 0 0 0 4 46 26 1 0
100 99 100 100 100 100 84 21 41 6 1 4 65 99 100 100 100 100 100 60 5 11 44 5 7 15 7 16 74 27 24 2 3 0 0 0 2 2 0 0 89 100 73 0 0
100 100 100 100 32 92 99 100 94 91 78 0 3 5 5 8 37 80 100 94 68 8 10 23 7 6 5 5 6 2 2 3 5 2 3 2 84 2 0 8 32 6 17 98 100
100 100 100 100 100 100 95 100 100 100 17 19 0 4 5 18 13 5 100 100 99 90 51 16 88 90 95 20 5 5 12 5 20 50 57 0 2 0 12 12 61 100 100 100 100
100 100 100 100 100 100 100 100 100 84 15 96 5 5 5 2 5 5 5 10 9 13 31 8 1 0 3 3 5 5 31 83 53 99 58 27 100 100 36 5 24 6 100 100 89
100 100 100 100 100 100 100 100 100 100 100 100 99 27 100 70 25 64 100 86 41 63 25 31 7 57 35 9 5 30 100 100 98 65 99 9 9 100 78 95 96 100 100 100 100
100 100 100 100 100 100 100 100 100 100 100 100 100 71 88 88 42 63 87 100 100 76 5 36 6 40 5 24 8 90 100 100 100 100 23 2 60 100 82 86 71 52 94 100 100
100 100 100 100 100 100 100 100 100 100 100 100 100 100 100 99 59 96 99 87 76 60 9 45 5 5 8 30 14 100 95 12 60 43 98 99 100 100 100 100 100 100 100 100 68
100 100 100 100 100 100 100 69 59 98 86 92 100 100 68 90 100 83 58 47 16 6 5 5 5 0 0 2 5 95 91 32 52 78 100 100 100 100 100 100 100 100 100 89 76
100 100 100 100 100 100 100 24 42 48 93 50 25 31 24 68 54 51 91 100 3 4 0 78 8 2 5 43 59 58 55 61 100 100 100 98 5 80 100 100 100 100 100 90 79
100 100 100 100 100 100 100 100 100 100 100 5 3 14 8 5 30 29 6 16 5 2 11 3 4 4 5 48 53 92 88 100 90 99 65 87 93 99 100 99 99 98 100 99 98
100 100 100 100 100 59 100 91 100 79 99 81 38 50 9 5 5 5 98 35 7 5 5 5 7 14 52 84 100 100 100 98 58 8 7 72 96 100 100 98 98 100 100 100 100
100 98 16 97 100 100 99 65 50 100 100 100 33 86 7 5 41 75 52 64 53 100 5 5 53 22 99 94 92 97 37 75 59 46 82 55 100 100 100 100 100 100 100 100 100
100 50 18 4 49 81 99 74 100 100 100 21 6 7 99 5 53 100 100 99 100 7 46 43 100 100 100 97 8 5 3 5 5 22 77 71 99 100 100 100 100 100 100 100 100
98 30 37 9 95 78 23 22 66 100 99 43 43 84 76 9 89 100 100 97 56 45 99 100 100 100 95 60 82 44 5 34 53 100 100 99 100 100 100 100 100 100 100 100 100

GFSSW_prec_cloud_123.txt.gz
Cloud_Cover
100 100 100 100 100 100 100 100 100 100 100 100 100 100 100 70 96 77 37 100 100 100 100 67 6 22 100 100 48 6 11 18 53 23 97 16 69 5 26 5 5 51 70 5 5
100 100 100 100 100 100 100 100 100 100 100 100 100 100 100 100 100 100 24 86 100 100 100 100 100 100 100 100 100 100 78 5 18 13 55 5 5 5 6 5 5 5 5 3 3
100 100 100 100 100 100 100 100 100 100 100 51 100 100 100 100 100 100 100 100 100 100 100 100 100 100 100 78 98 61 25 23 5 25 39 12 8 5 5 17 5 5 64 88 46
100 100 100 100 100 100 100 100 100 100 100 59 92 100 100 100 100 97 66 72 99 100 100 100 100 59 100 100 98 100 100 4 7 19 99 5 5 5 12 6 4 8 4 5 5
99 100 100 100 100 100 98 64 99 100 100 100 100 97 98 96 99 91 70 98 56 100 100 100 100 100 80 99 100 100 100 100 100 100 100 75 5 5 86 14 5 4 5 2 5
100 100 100 98 100 100 100 88 54 100 100 83 95 99 84 99 100 100 34 87 100 100 100 100 100 100 100 100 98 100 100 100 100 100 59 100 16 5 100 5 5 5 29 4 0
100 100 100 100 100 100 100 100 98 92 100 100 27 66 91 45 34 96 22 48 84 100 100 100 100 100 100 100 100 100 100 100 100 100 100 73 5 5 67 43 37 42 100 99 71
100 100 100 100 100 100 100 100 100 99 28 16 61 100 100 25 40 100 98 47 6 68 100 100 100 100 100 100 100 100 100 100 100 100 100 100 95 5 88 85 6 5 11 98 89
100 100 100 100 100 100 100 100 100 76 100 84 30 100 100 96 88 100 100 46 31 13 62 100 100 100 100 100 100 100 100 100 100 100 100 72 60 97 37 5 14 5 84 34 5
100 100 100 100 100 100 100 100 100 98 93 98 44 100 61 93 94 100 100 100 100 100 100 100 100 100 100 100 100 100 100 100 100 100 100 85 8 30 100 100 75 76 89 66 56
100 100 100 100 100 100 100 100 100 100 100 100 100 82 100 57 10 100 100 100 100 100 100 100 100 100 100 100 100 100 100 100 100 98 100 96 21 100 87 100 100 100 100 5 0
100 100 100 100 100 100 100 100 100 100 100 100 100 100 100 5 6 23 100 100 100 100 100 99 39 94 89 8 3 4 4 5 5 43 93 88 93 87 83 68 97 34 29 1 0
100 100 100 100 100 100 100 100 100 100 99 100 99 100 100 88 97 13 8 48 71 94 100 97 77 79 46 32 5 5 6 25 3 4 5 5 45 39 100 19 59 2 0 0 0
54 100 100 100 100 100 100 99 85 17 2 18 91 16 86 99 88 12 8 5 0 5 89 92 100 100 96 20 10 5 5 0 1 5 5 82 22 0 0 0 4 4 4 0 0
98 100 100 99 99 100 100 100 93 37 39 0 3 98 89 30 8 20 6 0 5 5 3 8 49 1 0 4 5 0 1 4 0 0 0 85 41 11 1 2 0 0 0 0 6
100 100 100 100 100 70 96 92 99 100 25 1 0 0 77 14 5 1 15 5 8 5 3 5 1 5 5 5 3 2 4 5 5 3 0 22 85 6 5 2 2 4 12 82 16
100 100 100 100 100 100 100 100 100 90 9 6 3 3 4 31 3 1 5 5 5 7 30 5 7 30 5 3 4 5 5 3 2 5 2 5 96 100 5 5 10 81 91 95 8
100 100 100 100 100 100 100 100 98 31 100 100 82 11 24 100 100 86 27 5 53 45 5 5 8 43 5 5 9 46 71 65 76 3 5 28 71 100 20 84 98 79 86 100 67
100 100 100 100 100 100 100 100 6 22 98 100 100 100 100 100 89 74 100 89 100 92 5 5 5 3 0 0 1 5 5 97 100 20 29 10 71 19 15 33 50 26 15 87 9
100 100 100 100 100 100 100 100 100 100 100 100 100 99 81 100 100 60 2 8 39 62 5 14 3 0 0 3 28 5 5 4 84 48 51 10 39 100 92 100 100 100 100 87 85
100 100 100 100 100 100 100 100 100 98 100 100 100 100 100 87 98 57 16 10 0 2 4 5 0 0 5 5 24 72 5 47 64 54 29 14 2 99 100 70 91 100 85 99 97
100 100 100 100 100 100 100 100 96 100 96 70 38 95 67 100 100 100 61 100 5 5 5 1 0 0 0 0 1 5 10 70 100 7 99 100 37 55 100 61 97 93 100 100 98
100 100 100 100 100 86 22 62 85 99 37 96 30 5 13 73 84 26 100 12 5 2 3 5 14 4 0 0 1 3 5 13 99 99 100 52 48 66 28 57 100 100 100 100 99
100 100 100 100 100 42 12 18 60 66 100 99 52 100 100 99 100 24 7 5 5 5 5 5 5 5 3 5 3 1 29 18 75 100 66 6 53 98 100 100 100 100 100 100 95
94 100 29 99 100 100 58 26 94 23 19 100 100 100 100 100 100 60 5 4 2 22 60 70 5 5 5 5 5 5 87 98 100 71 99 11 16 39 86 100 98 96 100 100 100
95 86 5 5 13 100 100 99 8 5 5 5 61 100 100 100 100 10 77 5 5 5 44 15 44 61 98 6 84 100 100 18 5 2 2 5 53 97 100 100 100 100 100 100 100
100 52 4 1 34 94 60 5 12 79 78 23 16 67 14 24 98 28 14 5 6 12 100 83 100 36 100 37 100 100 25 5 5 5 39 86 97 96 100 100 100 100 100 100 100

GFSSW_prec_cloud_126.txt.gz
Cloud_Cover
100 100 100 100 100 100 100 100 100 100 100 100 100 100 100 100 100 100 100 84 44 99 100 78 62 78 88 100 100 99 91 100 100 100 100 25 24 5 7 28 5 5 3 0 4
100 100 100 100 100 98 94 100 100 100 100 100 100 100 100 100 100 100 100 100 94 100 100 100 100 65 48 69 32 82 100 100 100 100 100 100 100 93 20 43 11 5 5 15 0
100 100 100 100 79 100 100 100 100 100 100 100 100 100 100 100 100 100 95 100 92 78 100 100 100 100 97 61 14 81 100 98 100 72 66 100 100 100 39 99 23 5 5 5 1
100 100 100 100 57 98 100 100 71 100 100 100 100 100 100 100 100 100 100 91 48 37 47 39 80 44 100 60 58 94 80 99 100 100 88 98 91 100 100 92 0 5 18 4 0
100 100 100 100 100 47 100 99 100 67 49 79 74 100 100 100 100 100 100 100 72 59 11 14 77 88 45 100 67 100 90 54 70 100 89 88 88 100 100 15 58 100 25 5 0
100 100 100 100 99 100 100 100 34 81 6 74 48 100 100 94 100 100 99 100 100 90 62 18 24 83 93 96 99 100 100 100 100 100 98 100 38 100 100 100 100 100 100 42 5
100 100 100 100 100 100 100 100 100 67 20 99 100 92 100 52 100 100 62 80 78 97 36 5 5 26 38 100 99 100 100 100 100 100 100 100 100 100 100 100 100 100 100 100 14
100 100 100 100 100 100 100 97 99 73 22 100 99 57 98 66 91 100 53 41 58 48 97 89 100 100 78 67 89 100 100 100 100 100 100 100 100 100 100 100 100 100 100 100 100
100 100 100 100 100 100 100 100 100 89 99 65 91 63 82 55 100 100 50 88 90 79 100 100 100 100 100 77 28 100 100 100 100 100 100 100 100 100 100 100 100 100 100 15 2
100 100 100 100 100 100 100 100 100 100 59 100 15 40 41 54 90 66 95 57 55 93 100 100 31 90 100 100 100 100 100 100 100 100 100 100 100 100 100 100 40 100 87 4 0
100 100 100 100 100 100 100 100 100 100 100 100 78 100 100 86 6 100 100 34 86 75 35 3 1 52 100 96 7 5 56 97 100 100 69 44 100 80 45 3 1 5 5 4 4
31 100 100 100 100 100 100 100 100 100 100 100 100 100 100 97 98 100 89 100 100 88 49 8 65 45 5 20 90 76 17 29 24 22 10 52 58 18 6 24 2 4 46 32 0
75 96 100 100 100 100 100 95 100 100 100 100 100 100 100 100 100 100 100 100 100 99 64 2 4 0 1 0 0 0 0 3 38 99 94 22 6 82 49 3 0 0 0 0 0
57 39 100 100 100 85 100 73 100 99 52 99 100 100 100 100 100 100 13 96 92 100 88 3 10 5 0 0 0 0 0 0 0 4 19 78 5 5 1 0 0 0 0 4 0
100 100 100 100 100 100 16 78 78 28 6 4 96 100 100 16 27 82 100 16 2 0 0 4 5 5 5 4 0 0 0 0 0 0 0 4 0 0 0 2 5 0 0 3 5
100 100 100 100 100 99 97 84 75 44 31 4 5 58 100 99 90 75 47 34 100 78 5 4 5 27 6 5 5 5 5 0 0 0 0 3 0 0 2 3 0 1 4 8 49
100 100 100 100 100 100 100 100 100 96 28 5 53 6 5 47 26 19 14 56 33 12 16 31 8 5 8 29 9 5 5 5 0 0 0 1 0 5 5 5 5 5 5 22 90
100 100 100 100 100 100 100 100 98 40 100 89 26 13 6 5 3 5 5 5 5 5 5 5 5 41 67 5 5 0 2 4 0 0 0 0 0 5 5 5 5 81 65 13 81
100 100 100 100 100 100 100 100 100 100 100 100 100 19 5 5 88 5 5 8 58 9 5 4 5 6 5 4 0 0 0 27 80 5 13 0 23 65 5 5 5 8 83 91 83
100 100 100 100 100 100 100 94 98 100 100 100 100 99 61 90 14 5 12 38 78 73 43 40 10 12 13 11 5 3 29 100 100 46 27 1 6 22 10 19 53 78 71 75 47
100 100 100 100 100 100 100 100 29 100 100 100 100 100 100 100 100 88 30 5 5 5 67 16 4 3 0 0 23 96 70 79 40 24 15 5 4 5 44 5 5 5 5 66 16
100 100 100 100 100 100 100 100 28 100 100 100 94 100 100 100 98 100 100 97 31 71 5 7 3 0 0 5 99 70 5 0 5 30 17 56 2 68 10 25 5 5 73 71 72
100 100 100 100 100 70 70 77 56 72 79 100 97 100 100 100 100 100 87 90 18 65 19 6 4 4 0 4 8 5 5 5 5 10 6 9 24 34 31 9 5 12 92 66 72
100 100 100 100 64 17 49 97 76 55 89 100 100 100 100 100 100 100 100 72 5 2 1 5 4 0 5 47 8 5 5 20 5 64 23 47 23 95 16 5 53 99 94 13 35
100 67 22 94 100 95 79 18 15 46 83 96 84 61 98 72 100 100 100 100 12 5 3 4 2 2 5 12 28 5 4 81 5 93 51 87 5 5 12 5 83 98 95 90 100
100 83 53 5 11 99 100 44 18 27 12 24 16 13 100 100 100 100 100 100 100 24 5 5 5 5 5 100 21 6 94 81 100 100 16 5 18 5 5 7 90 100 100 100 100
100 100 43 16 61 100 100 4 5 5 6 0 2 29 100 42 100 100 100 100 41 48 70 2 28 80 9 98 9 100 32 71 68 40 5 2 31 99 91 100 97 93 100 100 100

GFSSW_prec_cloud_129.txt.gz
Cloud_Cover
90 57 100 100 100 100 100 100 100 100 100 100 100 100 100 100 100 100 100 100 100 68 85 100 100 18 49 96 100 35 16 9 13 61 81 86 63 79 100 100 18 51 100 8 5
100 100 92 100 100 98 100 100 100 100 97 100 99 100 100 100 100 100 100 100 100 100 89 70 6 9 65 62 97 90 100 100 85 88 100 100 60 96 100 100 100 100 100 8 6
100 100 100 100 100 100 97 100 74 100 100 100 53 60 100 92 99 100 100 100 100 98 100 99 48 9 5 12 59 13 26 36 8 11 77 100 100 100 100 100 100 100 100 34 54
100 100 100 100 78 38 100 70 90 100 100 99 68 96 100 99 93 66 100 100 100 100 38 6 60 5 5 6 15 33 5 57 46 5 41 97 100 100 98 100 48 70 100 98 100
100 100 100 100 100 93 99 27 34 86 100 26 68 70 38 39 100 69 100 100 88 51 28 8 26 58 29 5 15 40 6 8 98 11 53 58 97 100 100 24 49 100 99 41 100
100 100 100 100 100 100 100 95 41 78 100 5 26 97 91 42 30 100 95 100 94 44 72 47 6 23 76 5 29 12 10 5 5 5 58 9 93 100 46 43 100 100 50 28 100
93 100 100 100 90 100 99 92 100 98 94 42 5 53 67 7 38 66 100 98 73 97 51 20 33 95 17 32 100 63 5 5 5 5 5 14 100 100 96 92 100 100 96 100 99
100 100 100 100 100 100 100 100 100 100 43 72 42 87 18 28 97 100 100 93 98 100 100 100 52 10 6 35 5 54 20 96 100 90 100 96 100 100 100 100 98 8 100 100 100
100 100 100 100 100 100 100 100 100 100 100 50 89 55 89 5 98 90 49 77 98 100 100 83 78 100 51 5 48 52 8 48 100 100 100 100 100 100 100 100 100 100 100 100 100
100 100 100 100 100 100 100 100 100 100 100 97 100 72 40 52 8 74 68 67 87 64 64 5 5 60 63 26 100 89 94 71 86 89 17 81 95 74 86 97 100 100 96 100 87
100 79 99 100 100 100 100 100 100 100 98 100 73 100 100 70 11 100 80 41 100 100 100 100 100 100 75 67 5 6 5 36 29 23 49 51 5 5 3 2 4 5 5 5 1
97 100 100 100 100 100 100 100 86 80 67 97 100 100 100 99 96 100 100 100 100 100 100 66 96 100 97 54 83 60 12 14 7 4 0 4 4 4 0 0 0 0 0 5 5
86 70 94 100 100 100 100 100 19 93 59 100 94 10 92 27 58 100 100 100 100 100 100 100 100 100 100 90 8 1 2 4 2 4 8 5 2 0 0 0 0 0 0 0 0
95 51 100 100 100 100 100 46 50 5 5 44 96 5 14 76 10 100 100 100 100 100 100 99 76 16 4 1 1 0 0 0 0 0 1 0 0 0 0 0 0 0 1 5 5
41 99 99 100 100 100 66 20 39 37 4 5 51 79 93 90 5 35 67 72 96 46 5 5 5 5 5 5 5 5 5 5 4 0 0 1 4 0 0 0 3 5 5 5 5
87 100 100 100 100 82 59 99 97 16 30 4 31 20 54 100 100 88 100 20 59 34 94 78 5 11 7 5 11 5 1 3 0 0 0 0 0 0 4 2 0 5 5 5 5
100 100 100 83 99 92 82 100 94 90 70 69 13 5 30 100 100 100 100 100 100 100 100 100 100 100 100 100 56 5 5 1 0 0 0 0 0 0 5 5 3 5 5 5 5
100 100 100 100 100 100 100 100 92 98 100 98 90 67 95 96 65 100 100 100 100 100 100 100 100 100 98 30 71 6 4 1 1 0 0 0 0 0 5 5 5 5 5 5 5
100 100 100 100 100 100 100 100 45 100 100 100 100 100 96 100 100 92 97 38 100 100 88 34 19 72 30 5 2 3 4 2 48 5 4 0 3 5 5 5 5 5 5 21 5
100 100 100 100 100 100 100 100 100 100 100 100 100 100 100 100 99 70 78 72 100 100 80 19 49 67 14 24 20 5 1 6 54 81 55 0 0 0 7 5 5 5 11 21 5
100 100 100 100 100 100 100 100 100 100 100 100 100 100 100 100 100 95 80 66 100 96 74 90 80 25 59 77 52 87 90 64 95 41 82 4 3 4 5 5 5 5 5 19 5
100 100 100 100 100 100 100 100 100 100 100 100 100 100 100 100 100 100 100 100 82 100 100 100 97 94 100 86 8 8 5 5 100 11 6 21 0 5 31 5 5 21 47 5 5
100 100 100 100 100 100 100 100 100 100 100 100 100 100 100 100 100 100 95 46 97 100 100 99 38 95 81 24 5 5 5 14 100 74 1 5 1 5 5 13 52 12 5 5 5
100 100 100 100 100 100 100 100 100 100 100 100 100 100 100 100 100 84 79 61 58 100 100 98 29 5 3 5 19 26 7 99 97 55 3 10 13 97 73 5 5 5 6 7 25
100 84 89 100 100 100 100 100 100 100 100 99 65 89 100 100 94 87 98 97 99 99 88 100 88 4 4 5 10 0 4 8 16 4 4 61 97 81 24 11 5 5 10 50 100
100 97 53 72 15 85 100 45 99 100 100 94 93 100 100 15 80 96 94 40 100 87 88 100 83 11 5 5 5 1 5 91 5 12 38 92 100 54 5 5 7 17 100 100 100
100 58 72 24 49 92 25 40 100 80 92 54 48 100 98 52 47 96 100 100 100 100 100 100 100 99 5 5 5 5 100 6 58 100 66 48 12 9 60 29 90 100 100 100 100